Wetterdaten: Montag, 16.09.2019
Datum Zeit Temp. Aussen Temp. o. S. +5cm Feuchte Auss Luftdruck Regen Sonnenschein Regendauer Solar Windben Empfang
16.09.2019 00:00 16,1 C 15,0 C 14,4 C 84 % 1022,0 hPa 0,0 l/m 0 min 0 min 0 W/m 0,0 km/h (0 Bft) 97,87 %
16.09.2019 00:02 16,1 C 15,0 C 14,4 C 84 % 1022,0 hPa 0,0 l/m 0 min 0 min 0 W/m 0,0 km/h (0 Bft) 97,37 %
16.09.2019 00:04 16,1 C 15,0 C 14,4 C 84 % 1022,0 hPa 0,0 l/m 0 min 0 min 0 W/m 0,0 km/h (0 Bft) 97,87 %
16.09.2019 00:08 16,1 C 15,0 C 14,4 C 85 % 1022,0 hPa 0,0 l/m 0 min 0 min 0 W/m 0,0 km/h (0 Bft) 97,87 %
16.09.2019 00:10 16,1 C 15,0 C 14,4 C 85 % 1022,0 hPa 0,0 l/m 0 min 0 min 0 W/m 0,0 km/h (0 Bft) 97,87 %
16.09.2019 00:12 16,1 C 15,0 C 14,4 C 85 % 1022,0 hPa 0,0 l/m 0 min 0 min 0 W/m 0,0 km/h (0 Bft) 93,62 %
16.09.2019 00:14 16,1 C 15,6 C 14,4 C 85 % 1021,9 hPa 0,0 l/m 0 min 0 min 0 W/m 0,0 km/h (0 Bft) 97,83 %
16.09.2019 00:16 16,1 C 15,6 C 14,4 C 85 % 1021,9 hPa 0,0 l/m 0 min 0 min 0 W/m 0,0 km/h (0 Bft) 97,87 %
16.09.2019 00:18 16,1 C 15,6 C 15,0 C 86 % 1021,8 hPa 0,0 l/m 0 min 0 min 0 W/m 0,0 km/h (0 Bft) 95,74 %
16.09.2019 00:20 16,1 C 15,6 C 15,0 C 86 % 1021,8 hPa 0,0 l/m 0 min 0 min 0 W/m 0,0 km/h (0 Bft) 97,87 %
16.09.2019 00:22 16,1 C 15,6 C 14,4 C 86 % 1021,9 hPa 0,0 l/m 0 min 0 min 0 W/m 0,0 km/h (0 Bft) 97,87 %
16.09.2019 00:24 16,1 C 15,6 C 14,4 C 87 % 1021,9 hPa 0,0 l/m 0 min 0 min 0 W/m 0,0 km/h (0 Bft) 91,49 %
16.09.2019 00:26 16,1 C 15,0 C 14,4 C 87 % 1021,8 hPa 0,0 l/m 0 min 0 min 0 W/m 0,0 km/h (0 Bft) 97,83 %
16.09.2019 00:28 16,1 C 15,0 C 14,4 C 87 % 1021,8 hPa 0,0 l/m 0 min 0 min 0 W/m 0,0 km/h (0 Bft) 97,87 %
16.09.2019 00:30 16,0 C 15,0 C 14,4 C 87 % 1021,9 hPa 0,0 l/m 0 min 0 min 0 W/m 0,0 km/h (0 Bft) 95,83 %
16.09.2019 00:32 16,0 C 15,0 C 14,4 C 87 % 1021,9 hPa 0,0 l/m 0 min 0 min 0 W/m 0,0 km/h (0 Bft) 93,62 %
16.09.2019 00:34 16,0 C 15,0 C 14,4 C 87 % 1021,9 hPa 0,0 l/m 0 min 0 min 0 W/m 0,0 km/h (0 Bft) 91,49 %
16.09.2019 00:36 16,0 C 15,0 C 14,4 C 87 % 1021,9 hPa 0,0 l/m 0 min 0 min 0 W/m 0,0 km/h (0 Bft) 93,62 %
16.09.2019 00:38 16,0 C 15,0 C 14,4 C 87 % 1022,0 hPa 0,0 l/m 0 min 0 min 0 W/m 0,0 km/h (0 Bft) 95,65 %
16.09.2019 00:40 16,0 C 14,4 C 14,4 C 87 % 1022,0 hPa 0,0 l/m 0 min 0 min 0 W/m 0,0 km/h (0 Bft) 91,49 %
16.09.2019 00:42 16,0 C 14,4 C 13,9 C 87 % 1022,0 hPa 0,0 l/m 0 min 0 min 0 W/m 0,0 km/h (0 Bft) 95,74 %
16.09.2019 00:44 16,0 C 14,4 C 13,9 C 87 % 1022,0 hPa 0,0 l/m 0 min 0 min 0 W/m 0,0 km/h (0 Bft) 95,74 %
16.09.2019 00:46 15,9 C 14,4 C 13,9 C 87 % 1022,0 hPa 0,0 l/m 0 min 0 min 0 W/m 0,0 km/h (0 Bft) 93,62 %
16.09.2019 00:48 15,9 C 14,4 C 13,9 C 87 % 1021,9 hPa 0,0 l/m 0 min 0 min 0 W/m 0,0 km/h (0 Bft) 95,74 %
16.09.2019 00:50 15,9 C 14,4 C 13,9 C 87 % 1021,9 hPa 0,0 l/m 0 min 0 min 0 W/m 0,0 km/h (0 Bft) 93,48 %
16.09.2019 00:52 15,9 C 14,4 C 13,9 C 87 % 1021,9 hPa 0,0 l/m 0 min 0 min 0 W/m 0,0 km/h (0 Bft) 95,74 %
16.09.2019 00:54 15,9 C 14,4 C 13,9 C 87 % 1021,9 hPa 0,0 l/m 0 min 0 min 0 W/m 0,0 km/h (0 Bft) 95,74 %
16.09.2019 00:56 15,9 C 14,4 C 13,9 C 87 % 1021,9 hPa 0,0 l/m 0 min 0 min 0 W/m 0,0 km/h (0 Bft) 93,62 %
16.09.2019 00:58 15,9 C 14,4 C 13,9 C 87 % 1021,9 hPa 0,0 l/m 0 min 0 min 0 W/m 0,0 km/h (0 Bft) 93,62 %
16.09.2019 01:00 15,9 C 14,4 C 13,9 C 87 % 1021,9 hPa 0,0 l/m 0 min 0 min 0 W/m 0,0 km/h (0 Bft) 95,65 %
16.09.2019 01:02 15,9 C 14,4 C 13,9 C 87 % 1021,9 hPa 0,0 l/m 0 min 0 min 0 W/m 0,0 km/h (0 Bft) 95,74 %
16.09.2019 01:04 15,9 C 14,4 C 13,9 C 87 % 1021,8 hPa 0,0 l/m 0 min 0 min 0 W/m 0,0 km/h (0 Bft) 95,74 %
16.09.2019 01:06 15,9 C 14,4 C 13,9 C 87 % 1021,9 hPa 0,0 l/m 0 min 0 min 0 W/m 0,0 km/h (0 Bft) 95,74 %
16.09.2019 01:08 15,9 C 14,4 C 13,9 C 87 % 1021,9 hPa 0,0 l/m 0 min 0 min 0 W/m 0,0 km/h (0 Bft) 95,74 %
16.09.2019 01:10 15,8 C 14,4 C 13,9 C 87 % 1021,8 hPa 0,0 l/m 0 min 0 min 0 W/m 0,0 km/h (0 Bft) 95,74 %
16.09.2019 01:12 15,8 C 14,4 C 13,9 C 87 % 1021,8 hPa 0,0 l/m 0 min 0 min 0 W/m 0,0 km/h (0 Bft) 97,83 %
16.09.2019 01:14 15,8 C 14,4 C 13,9 C 87 % 1021,7 hPa 0,0 l/m 0 min 0 min 0 W/m 0,0 km/h (0 Bft) 97,87 %
16.09.2019 01:16 15,8 C 14,4 C 13,9 C 87 % 1021,7 hPa 0,0 l/m 0 min 0 min 0 W/m 0,0 km/h (0 Bft) 95,74 %
16.09.2019 01:18 15,8 C 14,4 C 13,9 C 87 % 1021,7 hPa 0,0 l/m 0 min 0 min 0 W/m 0,0 km/h (0 Bft) 95,74 %
16.09.2019 01:20 15,8 C 14,4 C 13,9 C 87 % 1021,7 hPa 0,0 l/m 0 min 0 min 0 W/m 0,0 km/h (0 Bft) 100,00 %
16.09.2019 01:22 15,8 C 14,4 C 13,9 C 87 % 1021,7 hPa 0,0 l/m 0 min 0 min 0 W/m 0,0 km/h (0 Bft) 100,00 %
16.09.2019 01:24 15,8 C 14,4 C 13,9 C 87 % 1021,6 hPa 0,0 l/m 0 min 0 min 0 W/m 0,0 km/h (0 Bft) 100,00 %
16.09.2019 01:26 15,8 C 14,4 C 13,9 C 87 % 1021,7 hPa 0,0 l/m 0 min 0 min 0 W/m 0,0 km/h (0 Bft) 100,00 %
16.09.2019 01:28 15,8 C 14,4 C 13,9 C 87 % 1021,6 hPa 0,0 l/m 0 min 0 min 0 W/m 0,0 km/h (0 Bft) 100,00 %
16.09.2019 01:30 15,7 C 14,4 C 13,9 C 87 % 1021,6 hPa 0,0 l/m 0 min 0 min 0 W/m 0,0 km/h (0 Bft) 100,00 %
16.09.2019 01:32 15,7 C 14,4 C 13,9 C 87 % 1021,6 hPa 0,0 l/m 0 min 0 min 0 W/m 0,0 km/h (0 Bft) 100,00 %
16.09.2019 01:34 15,7 C 14,4 C 13,9 C 88 % 1021,6 hPa 0,0 l/m 0 min 0 min 0 W/m 0,0 km/h (0 Bft) 100,00 %
16.09.2019 01:36 15,7 C 13,9 C 13,9 C 88 % 1021,6 hPa 0,0 l/m 0 min 0 min 0 W/m 0,0 km/h (0 Bft) 100,00 %
16.09.2019 01:38 15,7 C 13,9 C 13,9 C 88 % 1021,6 hPa 0,0 l/m 0 min 0 min 0 W/m 0,0 km/h (0 Bft) 100,00 %
16.09.2019 01:40 15,7 C 13,9 C 13,9 C 87 % 1021,6 hPa 0,0 l/m 0 min 0 min 0 W/m 0,0 km/h (0 Bft) 100,00 %
16.09.2019 01:42 15,6 C 13,9 C 13,9 C 87 % 1021,6 hPa 0,0 l/m 0 min 0 min 0 W/m 0,0 km/h (0 Bft) 100,00 %
16.09.2019 01:44 15,6 C 13,9 C 13,9 C 87 % 1021,7 hPa 0,0 l/m 0 min 0 min 0 W/m 0,0 km/h (0 Bft) 100,00 %
16.09.2019 01:46 15,6 C 13,9 C 13,9 C 87 % 1021,7 hPa 0,0 l/m 0 min 0 min 0 W/m 0,0 km/h (0 Bft) 97,87 %
16.09.2019 01:48 15,6 C 13,9 C 13,9 C 87 % 1021,7 hPa 0,0 l/m 0 min 0 min 0 W/m 0,0 km/h (0 Bft) 100,00 %
16.09.2019 01:50 15,6 C 13,9 C 13,3 C 87 % 1021,7 hPa 0,0 l/m 0 min 0 min 0 W/m 0,0 km/h (0 Bft) 100,00 %
16.09.2019 01:52 15,6 C 13,9 C 13,3 C 88 % 1021,8 hPa 0,0 l/m 0 min 0 min 0 W/m 0,0 km/h (0 Bft) 100,00 %
16.09.2019 01:54 15,6 C 13,9 C 13,3 C 88 % 1021,8 hPa 0,0 l/m 0 min 0 min 0 W/m 0,0 km/h (0 Bft) 97,87 %
16.09.2019 01:56 15,5 C 13,9 C 13,3 C 88 % 1021,7 hPa 0,0 l/m 0 min 0 min 0 W/m 0,0 km/h (0 Bft) 100,00 %
16.09.2019 01:58 15,5 C 13,9 C 13,3 C 87 % 1021,8 hPa 0,0 l/m 0 min 0 min 0 W/m 0,0 km/h (0 Bft) 100,00 %
16.09.2019 02:00 15,5 C 13,9 C 13,3 C 87 % 1021,7 hPa 0,0 l/m 0 min 0 min 0 W/m 0,0 km/h (0 Bft) 97,83 %
16.09.2019 02:02 15,4 C 13,9 C 13,3 C 87 % 1021,7 hPa 0,0 l/m 0 min 0 min 0 W/m 0,0 km/h (0 Bft) 100,00 %
16.09.2019 02:04 15,4 C 13,9 C 13,9 C 87 % 1021,7 hPa 0,0 l/m 0 min 0 min 0 W/m 0,0 km/h (0 Bft) 100,00 %
16.09.2019 02:06 15,4 C 14,4 C 13,9 C 88 % 1021,7 hPa 0,0 l/m 0 min 0 min 0 W/m 0,0 km/h (0 Bft) 100,00 %
16.09.2019 02:08 15,4 C 14,4 C 13,9 C 88 % 1021,6 hPa 0,0 l/m 0 min 0 min 0 W/m 0,0 km/h (0 Bft) 100,00 %
16.09.2019 02:10 15,4 C 13,9 C 13,9 C 88 % 1021,6 hPa 0,0 l/m 0 min 0 min 0 W/m 0,0 km/h (0 Bft) 100,00 %
16.09.2019 02:12 15,4 C 13,9 C 13,9 C 88 % 1021,7 hPa 0,0 l/m 0 min 0 min 0 W/m 0,0 km/h (0 Bft) 100,00 %
16.09.2019 02:14 15,4 C 13,9 C 13,9 C 88 % 1021,7 hPa 0,0 l/m 0 min 0 min 0 W/m 0,0 km/h (0 Bft) 97,87 %
16.09.2019 02:16 15,4 C 13,9 C 13,9 C 88 % 1021,7 hPa 0,0 l/m 0 min 0 min 0 W/m 0,0 km/h (0 Bft) 100,00 %
16.09.2019 02:18 15,3 C 13,9 C 13,9 C 88 % 1021,7 hPa 0,0 l/m 0 min 0 min 0 W/m 0,0 km/h (0 Bft) 100,00 %
16.09.2019 02:20 15,3 C 13,9 C 13,9 C 88 % 1021,6 hPa 0,0 l/m 0 min 0 min 0 W/m 0,0 km/h (0 Bft) 100,00 %
16.09.2019 02:22 15,3 C 13,9 C 13,3 C 88 % 1021,6 hPa 0,0 l/m 0 min 0 min 0 W/m 0,0 km/h (0 Bft) 97,83 %
16.09.2019 02:24 15,3 C 13,9 C 13,3 C 88 % 1021,5 hPa 0,0 l/m 0 min 0 min 0 W/m 0,0 km/h (0 Bft) 100,00 %
16.09.2019 02:26 15,3 C 13,9 C 13,3 C 88 % 1021,5 hPa 0,0 l/m 0 min 0 min 0 W/m 0,0 km/h (0 Bft) 97,87 %
16.09.2019 02:28 15,3 C 13,9 C 13,3 C 88 % 1021,6 hPa 0,0 l/m 0 min 0 min 0 W/m 0,0 km/h (0 Bft) 100,00 %
16.09.2019 02:30 15,3 C 13,9 C 13,3 C 88 % 1021,5 hPa 0,0 l/m 0 min 0 min 0 W/m 0,0 km/h (0 Bft) 100,00 %
16.09.2019 02:32 15,3 C 13,9 C 13,3 C 88 % 1021,5 hPa 0,0 l/m 0 min 0 min 0 W/m 0,0 km/h (0 Bft) 100,00 %
16.09.2019 02:34 15,2 C 13,9 C 13,3 C 88 % 1021,5 hPa 0,0 l/m 0 min 0 min 0 W/m 0,0 km/h (0 Bft) 100,00 %
16.09.2019 02:36 15,2 C 13,9 C 13,3 C 88 % 1021,5 hPa 0,0 l/m 0 min 0 min 0 W/m 0,0 km/h (0 Bft) 100,00 %
16.09.2019 02:38 15,2 C 13,9 C 13,3 C 88 % 1021,4 hPa 0,0 l/m 0 min 0 min 0 W/m 0,0 km/h (0 Bft) 100,00 %
16.09.2019 02:40 15,2 C 13,9 C 13,3 C 88 % 1021,4 hPa 0,0 l/m 0 min 0 min 0 W/m 0,0 km/h (0 Bft) 97,87 %
16.09.2019 02:42 15,2 C 13,9 C 13,3 C 88 % 1021,4 hPa 0,0 l/m 0 min 0 min 0 W/m 0,0 km/h (0 Bft) 95,74 %
16.09.2019 02:44 15,2 C 13,9 C 13,3 C 88 % 1021,5 hPa 0,0 l/m 0 min 0 min 0 W/m 0,0 km/h (0 Bft) 97,87 %
16.09.2019 02:46 15,2 C 13,3 C 13,3 C 88 % 1021,5 hPa 0,0 l/m 0 min 0 min 0 W/m 0,0 km/h (0 Bft) 100,00 %
16.09.2019 02:48 15,1 C 13,3 C 13,3 C 88 % 1021,5 hPa 0,0 l/m 0 min 0 min 0 W/m 0,0 km/h (0 Bft) 97,87 %
16.09.2019 02:50 15,1 C 13,3 C 12,8 C 88 % 1021,5 hPa 0,0 l/m 0 min 0 min 0 W/m 0,0 km/h (0 Bft) 97,87 %
16.09.2019 02:52 15,1 C 13,3 C 12,8 C 88 % 1021,5 hPa 0,0 l/m 0 min 0 min 0 W/m 0,0 km/h (0 Bft) 97,87 %
16.09.2019 02:54 15,1 C 13,3 C 12,8 C 88 % 1021,6 hPa 0,0 l/m 0 min 0 min 0 W/m 0,0 km/h (0 Bft) 100,00 %
16.09.2019 02:56 15,1 C 13,3 C 12,8 C 88 % 1021,6 hPa 0,0 l/m 0 min 0 min 0 W/m 0,0 km/h (0 Bft) 97,87 %
16.09.2019 02:58 15,1 C 13,3 C 12,8 C 88 % 1021,6 hPa 0,0 l/m 0 min 0 min 0 W/m 0,0 km/h (0 Bft) 97,83 %
16.09.2019 03:00 15,1 C 13,3 C 12,8 C 88 % 1021,5 hPa 0,0 l/m 0 min 0 min 0 W/m 0,0 km/h (0 Bft) 95,74 %
16.09.2019 03:02 15,0 C 13,3 C 12,8 C 89 % 1021,6 hPa 0,0 l/m 0 min 0 min 0 W/m 0,0 km/h (0 Bft) 97,87 %
16.09.2019 03:04 15,0 C 13,3 C 12,8 C 89 % 1021,6 hPa 0,0 l/m 0 min 0 min 0 W/m 0,0 km/h (0 Bft) 97,87 %
16.09.2019 03:06 15,0 C 13,3 C 12,8 C 89 % 1021,5 hPa 0,0 l/m 0 min 0 min 0 W/m 0,0 km/h (0 Bft) 97,87 %
16.09.2019 03:08 14,9 C 13,3 C 12,8 C 89 % 1021,6 hPa 0,0 l/m 0 min 0 min 0 W/m 0,0 km/h (0 Bft) 97,83 %
16.09.2019 03:10 14,9 C 12,8 C 12,8 C 89 % 1021,6 hPa 0,0 l/m 0 min 0 min 0 W/m 0,0 km/h (0 Bft) 95,74 %
16.09.2019 03:12 14,9 C 12,8 C 12,8 C 89 % 1021,5 hPa 0,0 l/m 0 min 0 min 0 W/m 0,0 km/h (0 Bft) 95,74 %
16.09.2019 03:14 14,9 C 12,8 C 12,8 C 89 % 1021,5 hPa 0,0 l/m 0 min 0 min 0 W/m 0,0 km/h (0 Bft) 97,87 %
16.09.2019 03:16 14,9 C 12,8 C 12,8 C 89 % 1021,5 hPa 0,0 l/m 0 min 0 min 0 W/m 0,0 km/h (0 Bft) 95,74 %
16.09.2019 03:18 14,8 C 12,8 C 12,8 C 89 % 1021,5 hPa 0,0 l/m 0 min 0 min 0 W/m 0,0 km/h (0 Bft) 97,87 %
16.09.2019 03:20 14,8 C 12,8 C 12,8 C 89 % 1021,6 hPa 0,0 l/m 0 min 0 min 0 W/m 0,0 km/h (0 Bft) 97,83 %
16.09.2019 03:22 14,8 C 12,8 C 12,8 C 89 % 1021,5 hPa 0,0 l/m 0 min 0 min 0 W/m 0,0 km/h (0 Bft) 100,00 %
16.09.2019 03:24 14,8 C 12,8 C 12,8 C 89 % 1021,5 hPa 0,0 l/m 0 min 0 min 0 W/m 0,0 km/h (0 Bft) 97,87 %
16.09.2019 03:26 14,8 C 12,8 C 12,8 C 89 % 1021,5 hPa 0,0 l/m 0 min 0 min 0 W/m 0,0 km/h (0 Bft) 93,62 %
16.09.2019 03:28 14,7 C 12,8 C 12,8 C 89 % 1021,6 hPa 0,0 l/m 0 min 0 min 0 W/m 0,0 km/h (0 Bft) 93,62 %
16.09.2019 03:30 14,7 C 12,8 C 12,8 C 89 % 1021,6 hPa 0,0 l/m 0 min 0 min 0 W/m 0,0 km/h (0 Bft) 95,74 %
16.09.2019 03:32 14,7 C 12,8 C 12,8 C 89 % 1021,5 hPa 0,0 l/m 0 min 0 min 0 W/m 0,0 km/h (0 Bft) 93,48 %
16.09.2019 03:34 14,7 C 12,8 C 12,8 C 89 % 1021,5 hPa 0,0 l/m 0 min 0 min 0 W/m 0,0 km/h (0 Bft) 93,62 %
16.09.2019 03:36 14,7 C 12,8 C 12,8 C 89 % 1021,6 hPa 0,0 l/m 0 min 0 min 0 W/m 0,0 km/h (0 Bft) 93,62 %
16.09.2019 03:38 14,7 C 12,8 C 12,8 C 89 % 1021,5 hPa 0,0 l/m 0 min 0 min 0 W/m 0,0 km/h (0 Bft) 95,74 %
16.09.2019 03:40 14,6 C 12,8 C 12,8 C 89 % 1021,5 hPa 0,0 l/m 0 min 0 min 0 W/m 0,0 km/h (0 Bft) 89,36 %
16.09.2019 03:42 14,6 C 13,3 C 12,8 C 90 % 1021,4 hPa 0,0 l/m 0 min 0 min 0 W/m 0,0 km/h (0 Bft) 93,62 %
16.09.2019 03:44 14,6 C 13,3 C 12,8 C 90 % 1021,4 hPa 0,0 l/m 0 min 0 min 0 W/m 0,0 km/h (0 Bft) 93,48 %
16.09.2019 03:46 14,6 C 12,8 C 12,8 C 90 % 1021,4 hPa 0,0 l/m 0 min 0 min 0 W/m 0,0 km/h (0 Bft) 95,74 %
16.09.2019 03:48 14,5 C 12,8 C 12,8 C 90 % 1021,4 hPa 0,0 l/m 0 min 0 min 0 W/m 0,0 km/h (0 Bft) 97,87 %
16.09.2019 03:50 14,5 C 12,8 C 12,8 C 89 % 1021,4 hPa 0,0 l/m 0 min 0 min 0 W/m 0,0 km/h (0 Bft) 95,74 %
16.09.2019 03:52 14,5 C 12,8 C 12,8 C 89 % 1021,4 hPa 0,0 l/m 0 min 0 min 0 W/m 0,0 km/h (0 Bft) 91,49 %
16.09.2019 03:54 14,4 C 12,8 C 12,8 C 89 % 1021,4 hPa 0,0 l/m 0 min 0 min 0 W/m 0,0 km/h (0 Bft) 95,74 %
16.09.2019 03:56 14,4 C 12,8 C 12,8 C 90 % 1021,3 hPa 0,0 l/m 0 min 0 min 0 W/m 0,0 km/h (0 Bft) 95,65 %
16.09.2019 03:58 14,4 C 12,8 C 12,8 C 90 % 1021,3 hPa 0,0 l/m 0 min 0 min 0 W/m 0,0 km/h (0 Bft) 95,74 %
16.09.2019 04:00 14,4 C 13,3 C 12,8 C 90 % 1021,4 hPa 0,0 l/m 0 min 0 min 0 W/m 0,0 km/h (0 Bft) 95,74 %
16.09.2019 04:02 14,4 C 13,3 C 12,8 C 90 % 1021,3 hPa 0,0 l/m 0 min 0 min 0 W/m 0,0 km/h (0 Bft) 100,00 %
16.09.2019 04:04 14,4 C 13,3 C 12,8 C 90 % 1021,4 hPa 0,0 l/m 0 min 0 min 0 W/m 0,0 km/h (0 Bft) 91,49 %
16.09.2019 04:06 14,3 C 13,3 C 12,8 C 90 % 1021,4 hPa 0,0 l/m 0 min 0 min 0 W/m 0,0 km/h (0 Bft) 95,74 %
16.09.2019 04:08 14,3 C 13,3 C 12,8 C 90 % 1021,4 hPa 0,0 l/m 0 min 0 min 0 W/m 0,0 km/h (0 Bft) 93,48 %
16.09.2019 04:10 14,3 C 13,3 C 12,8 C 90 % 1021,3 hPa 0,0 l/m 0 min 0 min 0 W/m 0,0 km/h (0 Bft) 95,74 %
16.09.2019 04:12 14,3 C 13,3 C 12,8 C 90 % 1021,4 hPa 0,0 l/m 0 min 0 min 0 W/m 0,0 km/h (0 Bft) 95,74 %
16.09.2019 04:14 14,3 C 13,3 C 12,8 C 90 % 1021,3 hPa 0,0 l/m 0 min 0 min 0 W/m 0,0 km/h (0 Bft) 95,74 %
16.09.2019 04:16 14,3 C 13,3 C 12,8 C 90 % 1021,4 hPa 0,0 l/m 0 min 0 min 0 W/m 0,0 km/h (0 Bft) 97,87 %
16.09.2019 04:18 14,3 C 13,3 C 12,8 C 90 % 1021,3 hPa 0,0 l/m 0 min 0 min 0 W/m 0,0 km/h (0 Bft) 95,74 %
16.09.2019 04:20 14,2 C 13,3 C 12,8 C 90 % 1021,4 hPa 0,0 l/m 0 min 0 min 0 W/m 0,0 km/h (0 Bft) 95,65 %
16.09.2019 04:22 14,2 C 13,3 C 12,8 C 90 % 1021,4 hPa 0,0 l/m 0 min 0 min 0 W/m 0,0 km/h (0 Bft) 100,00 %
16.09.2019 04:24 14,2 C 13,3 C 12,8 C 90 % 1021,4 hPa 0,0 l/m 0 min 0 min 0 W/m 0,0 km/h (0 Bft) 97,87 %
16.09.2019 04:26 14,2 C 13,3 C 12,8 C 90 % 1021,4 hPa 0,0 l/m 0 min 0 min 0 W/m 0,0 km/h (0 Bft) 97,87 %
16.09.2019 04:28 14,2 C 13,3 C 12,8 C 90 % 1021,4 hPa 0,0 l/m 0 min 0 min 0 W/m 0,0 km/h (0 Bft) 97,87 %
16.09.2019 04:30 14,2 C 13,3 C 12,8 C 90 % 1021,4 hPa 0,0 l/m 0 min 0 min 0 W/m 0,0 km/h (0 Bft) 95,65 %
16.09.2019 04:32 14,2 C 13,3 C 12,8 C 91 % 1021,3 hPa 0,0 l/m 0 min 0 min 0 W/m 0,0 km/h (0 Bft) 97,87 %
16.09.2019 04:34 14,3 C 13,3 C 12,8 C 91 % 1021,1 hPa 0,0 l/m 0 min 0 min 0 W/m 0,0 km/h (0 Bft) 97,87 %
16.09.2019 04:36 14,3 C 13,3 C 12,8 C 91 % 1021,2 hPa 0,0 l/m 0 min 0 min 0 W/m 0,0 km/h (0 Bft) 95,74 %
16.09.2019 04:38 14,3 C 13,3 C 12,8 C 91 % 1021,2 hPa 0,0 l/m 0 min 0 min 0 W/m 0,0 km/h (0 Bft) 95,74 %
16.09.2019 04:40 14,2 C 13,3 C 12,8 C 91 % 1021,3 hPa 0,0 l/m 0 min 0 min 0 W/m 0,0 km/h (0 Bft) 100,00 %
16.09.2019 04:42 14,2 C 13,3 C 12,8 C 91 % 1021,2 hPa 0,0 l/m 0 min 0 min 0 W/m 0,0 km/h (0 Bft) 100,00 %
16.09.2019 04:44 14,2 C 13,3 C 12,8 C 91 % 1021,3 hPa 0,0 l/m 0 min 0 min 0 W/m 0,0 km/h (0 Bft) 100,00 %
16.09.2019 04:46 14,2 C 12,8 C 12,8 C 91 % 1021,1 hPa 0,0 l/m 0 min 0 min 0 W/m 0,0 km/h (0 Bft) 100,00 %
16.09.2019 04:48 14,2 C 12,8 C 12,8 C 91 % 1021,3 hPa 0,0 l/m 0 min 0 min 0 W/m 0,0 km/h (0 Bft) 97,87 %
16.09.2019 04:50 14,2 C 12,8 C 12,8 C 91 % 1021,4 hPa 0,0 l/m 0 min 0 min 0 W/m 0,0 km/h (0 Bft) 100,00 %
16.09.2019 04:52 14,2 C 12,8 C 12,8 C 91 % 1021,3 hPa 0,0 l/m 0 min 0 min 0 W/m 0,0 km/h (0 Bft) 97,87 %
16.09.2019 04:54 14,2 C 12,8 C 12,8 C 91 % 1021,3 hPa 0,0 l/m 0 min 0 min 0 W/m 0,0 km/h (0 Bft) 100,00 %
16.09.2019 04:56 14,2 C 12,8 C 12,2 C 91 % 1021,2 hPa 0,0 l/m 0 min 0 min 0 W/m 0,0 km/h (0 Bft) 100,00 %
16.09.2019 04:58 14,2 C 12,8 C 12,2 C 91 % 1021,1 hPa 0,0 l/m 0 min 0 min 0 W/m 0,0 km/h (0 Bft) 97,87 %
16.09.2019 05:00 14,2 C 12,8 C 12,2 C 91 % 1021,2 hPa 0,0 l/m 0 min 0 min 0 W/m 0,0 km/h (0 Bft) 97,87 %
16.09.2019 05:02 14,2 C 12,8 C 12,2 C 91 % 1021,1 hPa 0,0 l/m 0 min 0 min 0 W/m 0,0 km/h (0 Bft) 100,00 %
16.09.2019 05:04 14,2 C 12,8 C 12,2 C 91 % 1021,1 hPa 0,0 l/m 0 min 0 min 0 W/m 0,0 km/h (0 Bft) 97,87 %
16.09.2019 05:06 14,2 C 12,8 C 12,2 C 91 % 1021,0 hPa 0,0 l/m 0 min 0 min 0 W/m 0,0 km/h (0 Bft) 100,00 %
16.09.2019 05:08 14,2 C 12,8 C 12,2 C 91 % 1021,0 hPa 0,0 l/m 0 min 0 min 0 W/m 0,0 km/h (0 Bft) 97,87 %
16.09.2019 05:10 14,2 C 12,8 C 12,2 C 91 % 1021,0 hPa 0,0 l/m 0 min 0 min 0 W/m 0,0 km/h (0 Bft) 97,87 %
16.09.2019 05:12 14,2 C 12,8 C 12,2 C 91 % 1021,0 hPa 0,0 l/m 0 min 0 min 0 W/m 0,0 km/h (0 Bft) 97,87 %
16.09.2019 05:14 14,2 C 12,8 C 12,2 C 91 % 1021,0 hPa 0,0 l/m 0 min 0 min 0 W/m 0,0 km/h (0 Bft) 100,00 %
16.09.2019 05:16 14,2 C 12,2 C 12,2 C 91 % 1020,9 hPa 0,0 l/m 0 min 0 min 0 W/m 0,0 km/h (0 Bft) 100,00 %
16.09.2019 05:18 14,2 C 12,8 C 12,2 C 91 % 1021,0 hPa 0,0 l/m 0 min 0 min 0 W/m 0,0 km/h (0 Bft) 97,83 %
16.09.2019 05:20 14,2 C 12,8 C 12,2 C 91 % 1020,8 hPa 0,0 l/m 0 min 0 min 0 W/m 0,0 km/h (0 Bft) 95,74 %
16.09.2019 05:22 14,1 C 12,8 C 12,2 C 92 % 1020,9 hPa 0,0 l/m 0 min 0 min 0 W/m 0,0 km/h (0 Bft) 97,87 %
16.09.2019 05:24 14,1 C 12,8 C 12,2 C 92 % 1020,9 hPa 0,0 l/m 0 min 0 min 0 W/m 0,0 km/h (0 Bft) 95,74 %
16.09.2019 05:26 14,1 C 12,8 C 12,2 C 92 % 1020,8 hPa 0,0 l/m 0 min 0 min 0 W/m 0,0 km/h (0 Bft) 97,87 %
16.09.2019 05:28 14,1 C 12,8 C 12,2 C 92 % 1020,7 hPa 0,0 l/m 0 min 0 min 0 W/m 0,0 km/h (0 Bft) 95,74 %
16.09.2019 05:30 14,0 C 12,8 C 12,2 C 92 % 1020,7 hPa 0,0 l/m 0 min 0 min 0 W/m 0,0 km/h (0 Bft) 97,83 %
16.09.2019 05:32 14,0 C 12,8 C 12,8 C 92 % 1020,6 hPa 0,0 l/m 0 min 0 min 0 W/m 0,0 km/h (0 Bft) 97,87 %
16.09.2019 05:34 14,0 C 13,3 C 12,8 C 91 % 1020,5 hPa 0,0 l/m 0 min 0 min 0 W/m 0,0 km/h (0 Bft) 97,87 %
16.09.2019 05:36 14,0 C 13,3 C 12,8 C 92 % 1020,4 hPa 0,0 l/m 0 min 0 min 0 W/m 0,0 km/h (0 Bft) 97,87 %
16.09.2019 05:38 14,0 C 13,3 C 12,8 C 92 % 1020,5 hPa 0,0 l/m 0 min 0 min 0 W/m 0,0 km/h (0 Bft) 97,87 %
16.09.2019 05:40 14,0 C 13,3 C 12,8 C 92 % 1020,5 hPa 0,0 l/m 0 min 0 min 0 W/m 0,0 km/h (0 Bft) 97,87 %
16.09.2019 05:42 13,9 C 13,3 C 12,8 C 92 % 1020,5 hPa 0,0 l/m 0 min 0 min 0 W/m 0,0 km/h (0 Bft) 97,83 %
16.09.2019 05:44 13,9 C 13,3 C 12,8 C 92 % 1020,7 hPa 0,0 l/m 0 min 0 min 0 W/m 0,0 km/h (0 Bft) 97,87 %
16.09.2019 05:46 14,0 C 13,3 C 12,8 C 92 % 1020,8 hPa 0,0 l/m 0 min 0 min 0 W/m 0,0 km/h (0 Bft) 95,74 %
16.09.2019 05:48 14,0 C 12,8 C 12,8 C 92 % 1020,9 hPa 0,0 l/m 0 min 0 min 0 W/m 0,0 km/h (0 Bft) 95,74 %
16.09.2019 05:50 14,0 C 12,8 C 12,8 C 92 % 1020,8 hPa 0,0 l/m 0 min 0 min 0 W/m 0,0 km/h (0 Bft) 97,87 %
16.09.2019 05:52 13,9 C 12,8 C 12,8 C 92 % 1020,5 hPa 0,0 l/m 0 min 0 min 0 W/m 0,0 km/h (0 Bft) 95,65 %
16.09.2019 05:54 13,9 C 12,8 C 12,8 C 92 % 1020,3 hPa 0,0 l/m 0 min 0 min 0 W/m 0,0 km/h (0 Bft) 97,87 %
16.09.2019 05:56 14,0 C 13,3 C 12,8 C 92 % 1020,2 hPa 0,0 l/m 0 min 0 min 0 W/m 0,0 km/h (0 Bft) 97,87 %
16.09.2019 05:58 14,0 C 13,3 C 12,8 C 92 % 1020,1 hPa 0,0 l/m 0 min 0 min 0 W/m 0,0 km/h (0 Bft) 97,87 %
16.09.2019 06:00 14,0 C 13,3 C 12,8 C 92 % 1020,1 hPa 0,0 l/m 0 min 0 min 0 W/m 0,0 km/h (0 Bft) 100,00 %
16.09.2019 06:02 14,0 C 13,3 C 12,8 C 93 % 1020,3 hPa 0,0 l/m 0 min 0 min 0 W/m 0,0 km/h (0 Bft) 100,00 %
16.09.2019 06:04 14,0 C 13,3 C 12,8 C 93 % 1020,1 hPa 0,0 l/m 0 min 0 min 0 W/m 0,0 km/h (0 Bft) 100,00 %
16.09.2019 06:08 14,0 C 13,3 C 12,8 C 93 % 1020,1 hPa 0,0 l/m 0 min 0 min 0 W/m 0,0 km/h (0 Bft) 100,00 %
16.09.2019 06:10 14,0 C 13,3 C 12,8 C 93 % 1020,0 hPa 0,0 l/m 0 min 0 min 0 W/m 0,0 km/h (0 Bft) 100,00 %
16.09.2019 06:12 14,0 C 13,3 C 12,8 C 93 % 1019,8 hPa 0,0 l/m 0 min 0 min 0 W/m 0,0 km/h (0 Bft) 100,00 %
16.09.2019 06:14 14,0 C 13,9 C 12,8 C 93 % 1019,6 hPa 0,0 l/m 0 min 0 min 0 W/m 0,0 km/h (0 Bft) 97,87 %
16.09.2019 06:16 14,1 C 13,9 C 13,3 C 93 % 1019,5 hPa 0,0 l/m 0 min 0 min 0 W/m 0,0 km/h (0 Bft) 97,83 %
16.09.2019 06:18 14,2 C 13,9 C 13,3 C 93 % 1019,7 hPa 0,0 l/m 0 min 0 min 0 W/m 0,0 km/h (0 Bft) 100,00 %
16.09.2019 06:20 14,2 C 13,9 C 13,3 C 93 % 1020,1 hPa 0,0 l/m 0 min 0 min 0 W/m 0,0 km/h (0 Bft) 100,00 %
16.09.2019 06:22 14,2 C 13,9 C 13,3 C 93 % 1020,1 hPa 0,0 l/m 0 min 0 min 0 W/m 0,0 km/h (0 Bft) 97,87 %
16.09.2019 06:24 14,2 C 13,3 C 13,3 C 93 % 1020,4 hPa 0,0 l/m 0 min 0 min 0 W/m 0,0 km/h (0 Bft) 97,87 %
16.09.2019 06:26 14,2 C 13,3 C 13,3 C 93 % 1020,4 hPa 0,0 l/m 0 min 0 min 0 W/m 0,0 km/h (0 Bft) 100,00 %
16.09.2019 06:28 14,2 C 13,3 C 13,3 C 94 % 1020,5 hPa 0,0 l/m 0 min 0 min 0 W/m 0,0 km/h (0 Bft) 95,65 %
16.09.2019 06:30 14,2 C 13,3 C 13,3 C 94 % 1020,2 hPa 0,0 l/m 0 min 0 min 0 W/m 0,0 km/h (0 Bft) 97,87 %
16.09.2019 06:32 14,2 C 13,3 C 13,3 C 94 % 1020,0 hPa 0,0 l/m 0 min 0 min 0 W/m 0,0 km/h (0 Bft) 97,87 %
16.09.2019 06:34 14,2 C 13,3 C 13,3 C 94 % 1019,9 hPa 0,0 l/m 0 min 0 min 0 W/m 0,0 km/h (0 Bft) 97,87 %
16.09.2019 06:36 14,2 C 13,3 C 13,3 C 94 % 1019,8 hPa 0,0 l/m 0 min 0 min 0 W/m 0,0 km/h (0 Bft) 97,87 %
16.09.2019 06:38 14,2 C 13,3 C 12,8 C 94 % 1019,9 hPa 0,0 l/m 0 min 0 min 0 W/m 0,0 km/h (0 Bft) 95,74 %
16.09.2019 06:40 14,2 C 13,3 C 12,8 C 94 % 1019,9 hPa 0,0 l/m 0 min 0 min 0 W/m 0,0 km/h (0 Bft) 97,83 %
16.09.2019 06:42 14,2 C 13,3 C 12,8 C 94 % 1020,0 hPa 0,0 l/m 0 min 0 min 0 W/m 0,0 km/h (0 Bft) 97,87 %
16.09.2019 06:44 14,2 C 13,3 C 12,8 C 94 % 1020,0 hPa 0,0 l/m 0 min 0 min 0 W/m 0,0 km/h (0 Bft) 97,87 %
16.09.2019 06:46 14,2 C 13,3 C 12,8 C 94 % 1019,9 hPa 0,0 l/m 0 min 0 min 0 W/m 0,0 km/h (0 Bft) 95,74 %
16.09.2019 06:48 14,2 C 13,3 C 12,8 C 94 % 1020,0 hPa 0,0 l/m 0 min 0 min 0 W/m 0,0 km/h (0 Bft) 97,87 %
16.09.2019 06:50 14,2 C 13,3 C 12,8 C 94 % 1019,9 hPa 0,0 l/m 0 min 0 min 0 W/m 0,0 km/h (0 Bft) 97,83 %
16.09.2019 06:52 14,2 C 13,3 C 12,8 C 94 % 1019,9 hPa 0,0 l/m 0 min 0 min 0 W/m 0,0 km/h (0 Bft) 97,87 %
16.09.2019 06:54 14,2 C 13,3 C 12,8 C 94 % 1020,0 hPa 0,0 l/m 0 min 0 min 0 W/m 0,0 km/h (0 Bft) 97,87 %
16.09.2019 06:56 14,2 C 13,3 C 12,8 C 94 % 1020,1 hPa 0,0 l/m 0 min 0 min 0 W/m 0,0 km/h (0 Bft) 97,87 %
16.09.2019 06:58 14,2 C 13,3 C 12,8 C 94 % 1020,3 hPa 0,0 l/m 0 min 0 min 0 W/m 0,0 km/h (0 Bft) 95,74 %
16.09.2019 07:00 14,2 C 13,3 C 12,8 C 94 % 1020,3 hPa 0,0 l/m 0 min 0 min 0 W/m 0,0 km/h (0 Bft) 97,87 %
16.09.2019 07:02 14,2 C 13,3 C 12,8 C 94 % 1020,2 hPa 0,0 l/m 0 min 0 min 0 W/m 0,0 km/h (0 Bft) 95,74 %
16.09.2019 07:04 14,2 C 13,3 C 12,8 C 94 % 1020,3 hPa 0,0 l/m 0 min 0 min 0 W/m 0,0 km/h (0 Bft) 97,83 %
16.09.2019 07:06 14,2 C 13,3 C 12,8 C 94 % 1020,3 hPa 0,0 l/m 0 min 0 min 0 W/m 0,0 km/h (0 Bft) 97,87 %
16.09.2019 07:08 14,2 C 13,3 C 12,8 C 94 % 1020,4 hPa 0,0 l/m 0 min 0 min 0 W/m 0,0 km/h (0 Bft) 100,00 %
16.09.2019 07:10 14,2 C 13,3 C 12,8 C 94 % 1020,4 hPa 0,0 l/m 0 min 0 min 0 W/m 0,0 km/h (0 Bft) 100,00 %
16.09.2019 07:12 14,2 C 13,3 C 12,8 C 94 % 1020,4 hPa 0,0 l/m 0 min 0 min 0 W/m 0,0 km/h (0 Bft) 97,87 %
16.09.2019 07:14 14,2 C 13,3 C 12,8 C 94 % 1020,5 hPa 0,0 l/m 0 min 0 min 0 W/m 0,0 km/h (0 Bft) 100,00 %
16.09.2019 07:16 14,2 C 13,3 C 12,8 C 94 % 1020,6 hPa 0,0 l/m 0 min 0 min 0 W/m 0,0 km/h (0 Bft) 100,00 %
16.09.2019 07:18 14,2 C 13,3 C 12,8 C 94 % 1020,6 hPa 0,0 l/m 0 min 0 min 0 W/m 0,0 km/h (0 Bft) 97,87 %
16.09.2019 07:20 14,2 C 13,3 C 12,8 C 94 % 1020,6 hPa 0,0 l/m 0 min 0 min 0 W/m 0,0 km/h (0 Bft) 97,87 %
16.09.2019 07:22 14,2 C 13,3 C 12,8 C 94 % 1020,5 hPa 0,0 l/m 0 min 0 min 0 W/m 0,0 km/h (0 Bft) 97,87 %
16.09.2019 07:24 14,2 C 13,3 C 12,8 C 94 % 1020,5 hPa 0,0 l/m 0 min 0 min 3 W/m 0,0 km/h (0 Bft) 97,87 %
16.09.2019 07:26 14,2 C 13,3 C 12,8 C 94 % 1020,3 hPa 0,0 l/m 0 min 0 min 5 W/m 0,0 km/h (0 Bft) 97,83 %
16.09.2019 07:28 14,2 C 13,3 C 12,8 C 94 % 1020,4 hPa 0,0 l/m 0 min 0 min 5 W/m 0,0 km/h (0 Bft) 97,87 %
16.09.2019 07:30 14,2 C 13,3 C 12,8 C 94 % 1020,4 hPa 0,0 l/m 0 min 0 min 5 W/m 0,0 km/h (0 Bft) 97,87 %
16.09.2019 07:32 14,2 C 13,3 C 12,8 C 94 % 1020,4 hPa 0,0 l/m 0 min 0 min 7 W/m 0,0 km/h (0 Bft) 93,62 %
16.09.2019 07:34 14,2 C 13,3 C 12,8 C 94 % 1020,4 hPa 0,0 l/m 0 min 0 min 7 W/m 0,0 km/h (0 Bft) 91,49 %
16.09.2019 07:36 14,2 C 13,3 C 12,8 C 94 % 1020,4 hPa 0,0 l/m 0 min 0 min 7 W/m 0,0 km/h (0 Bft) 93,62 %
16.09.2019 07:38 14,2 C 13,3 C 12,8 C 94 % 1020,2 hPa 0,0 l/m 0 min 0 min 9 W/m 0,0 km/h (0 Bft) 95,65 %
16.09.2019 07:40 14,2 C 13,3 C 13,3 C 94 % 1020,2 hPa 0,0 l/m 0 min 0 min 11 W/m 0,0 km/h (0 Bft) 97,87 %
16.09.2019 07:42 14,2 C 13,3 C 13,3 C 94 % 1020,2 hPa 0,0 l/m 0 min 0 min 11 W/m 0,0 km/h (0 Bft) 91,49 %
16.09.2019 07:44 14,2 C 13,3 C 13,3 C 94 % 1020,2 hPa 0,0 l/m 0 min 0 min 11 W/m 0,0 km/h (0 Bft) 95,74 %
16.09.2019 07:46 14,2 C 13,3 C 13,3 C 94 % 1020,1 hPa 0,0 l/m 0 min 0 min 11 W/m 0,0 km/h (0 Bft) 95,74 %
16.09.2019 07:48 14,2 C 13,3 C 13,3 C 94 % 1020,1 hPa 0,0 l/m 0 min 0 min 11 W/m 0,0 km/h (0 Bft) 95,74 %
16.09.2019 07:50 14,2 C 13,3 C 13,3 C 94 % 1020,1 hPa 0,0 l/m 0 min 0 min 12 W/m 0,0 km/h (0 Bft) 95,65 %
16.09.2019 07:52 14,2 C 13,9 C 13,3 C 94 % 1020,0 hPa 0,0 l/m 0 min 0 min 13 W/m 0,0 km/h (0 Bft) 95,74 %
16.09.2019 07:54 14,2 C 13,9 C 13,3 C 94 % 1020,0 hPa 0,0 l/m 0 min 0 min 14 W/m 0,0 km/h (0 Bft) 95,74 %
16.09.2019 07:56 14,2 C 13,9 C 13,3 C 94 % 1020,0 hPa 0,0 l/m 0 min 0 min 16 W/m 0,0 km/h (0 Bft) 95,74 %
16.09.2019 07:58 14,2 C 13,9 C 13,3 C 94 % 1020,0 hPa 0,0 l/m 0 min 0 min 16 W/m 0,0 km/h (0 Bft) 93,62 %
16.09.2019 08:00 14,2 C 13,9 C 13,3 C 94 % 1019,9 hPa 0,0 l/m 0 min 0 min 16 W/m 0,0 km/h (0 Bft) 95,74 %
16.09.2019 08:02 14,2 C 13,9 C 13,3 C 94 % 1020,0 hPa 0,0 l/m 0 min 0 min 16 W/m 0,0 km/h (0 Bft) 93,48 %
16.09.2019 08:04 14,2 C 13,9 C 13,3 C 94 % 1020,0 hPa 0,0 l/m 0 min 0 min 13 W/m 0,0 km/h (0 Bft) 95,74 %
16.09.2019 08:06 14,2 C 13,9 C 13,9 C 94 % 1020,2 hPa 0,0 l/m 0 min 0 min 11 W/m 0,0 km/h (0 Bft) 95,74 %
16.09.2019 08:08 14,2 C 14,4 C 13,9 C 94 % 1020,1 hPa 0,0 l/m 0 min 0 min 11 W/m 0,0 km/h (0 Bft) 96,23 %
16.09.2019 08:10 14,2 C 14,4 C 13,9 C 94 % 1019,9 hPa 0,0 l/m 0 min 0 min 13 W/m 3,2 km/h (1 Bft) 93,62 %
16.09.2019 08:12 14,2 C 14,4 C 13,9 C 95 % 1019,8 hPa 0,0 l/m 0 min 0 min 18 W/m 3,2 km/h (1 Bft) 95,74 %
16.09.2019 08:14 14,2 C 14,4 C 13,9 C 95 % 1019,8 hPa 0,0 l/m 0 min 0 min 24 W/m 3,2 km/h (1 Bft) 95,65 %
16.09.2019 08:16 14,2 C 14,4 C 13,9 C 95 % 1019,8 hPa 0,0 l/m 0 min 0 min 25 W/m 3,2 km/h (1 Bft) 95,74 %
16.09.2019 08:18 14,2 C 14,4 C 13,9 C 95 % 1019,8 hPa 0,0 l/m 0 min 0 min 28 W/m 3,2 km/h (1 Bft) 95,74 %
16.09.2019 08:20 14,3 C 14,4 C 13,9 C 95 % 1019,7 hPa 0,0 l/m 0 min 0 min 31 W/m 3,2 km/h (1 Bft) 95,74 %
16.09.2019 08:22 14,3 C 14,4 C 13,9 C 95 % 1019,9 hPa 0,0 l/m 0 min 0 min 33 W/m 0,0 km/h (0 Bft) 95,74 %
16.09.2019 08:24 14,3 C 14,4 C 13,9 C 95 % 1020,0 hPa 0,0 l/m 0 min 0 min 34 W/m 6,4 km/h (2 Bft) 97,87 %
16.09.2019 08:26 14,4 C 14,4 C 13,9 C 95 % 1020,0 hPa 0,0 l/m 0 min 0 min 36 W/m 3,2 km/h (1 Bft) 97,83 %
16.09.2019 08:28 14,4 C 14,4 C 13,9 C 95 % 1019,9 hPa 0,0 l/m 0 min 0 min 38 W/m 0,0 km/h (0 Bft) 95,74 %
16.09.2019 08:30 14,4 C 14,4 C 14,4 C 95 % 1019,9 hPa 0,0 l/m 0 min 0 min 42 W/m 0,0 km/h (0 Bft) 97,87 %
16.09.2019 08:32 14,5 C 14,4 C 14,4 C 95 % 1019,9 hPa 0,0 l/m 0 min 0 min 42 W/m 0,0 km/h (0 Bft) 95,74 %
16.09.2019 08:34 14,5 C 14,4 C 14,4 C 95 % 1020,0 hPa 0,0 l/m 0 min 0 min 42 W/m 0,0 km/h (0 Bft) 97,87 %
16.09.2019 08:36 14,5 C 15,0 C 14,4 C 95 % 1020,0 hPa 0,0 l/m 0 min 0 min 43 W/m 0,0 km/h (0 Bft) 95,74 %
16.09.2019 08:38 14,6 C 15,0 C 14,4 C 95 % 1019,9 hPa 0,0 l/m 0 min 0 min 46 W/m 3,2 km/h (1 Bft) 100,00 %
16.09.2019 08:40 14,6 C 15,0 C 14,4 C 95 % 1019,9 hPa 0,0 l/m 0 min 0 min 50 W/m 0,0 km/h (0 Bft) 100,00 %
16.09.2019 08:42 14,6 C 15,0 C 14,4 C 95 % 1019,9 hPa 0,0 l/m 0 min 0 min 49 W/m 0,0 km/h (0 Bft) 100,00 %
16.09.2019 08:44 14,6 C 15,0 C 14,4 C 95 % 1020,0 hPa 0,0 l/m 0 min 0 min 45 W/m 0,0 km/h (0 Bft) 97,87 %
16.09.2019 08:46 14,6 C 15,0 C 14,4 C 95 % 1020,0 hPa 0,0 l/m 0 min 0 min 40 W/m 0,0 km/h (0 Bft) 100,00 %
16.09.2019 08:48 14,6 C 15,0 C 14,4 C 95 % 1020,0 hPa 0,0 l/m 0 min 0 min 37 W/m 0,0 km/h (0 Bft) 100,00 %
16.09.2019 08:50 14,7 C 15,0 C 14,4 C 95 % 1019,9 hPa 0,0 l/m 0 min 0 min 36 W/m 0,0 km/h (0 Bft) 100,00 %
16.09.2019 08:52 14,7 C 15,0 C 14,4 C 95 % 1020,0 hPa 0,0 l/m 0 min 0 min 39 W/m 0,0 km/h (0 Bft) 100,00 %
16.09.2019 08:54 14,7 C 15,0 C 14,4 C 95 % 1020,0 hPa 0,0 l/m 0 min 0 min 38 W/m 0,0 km/h (0 Bft) 100,00 %
16.09.2019 08:56 14,7 C 15,0 C 14,4 C 95 % 1020,0 hPa 0,0 l/m 0 min 0 min 35 W/m 3,2 km/h (1 Bft) 100,00 %
16.09.2019 08:58 14,8 C 15,0 C 14,4 C 95 % 1020,0 hPa 0,0 l/m 0 min 0 min 37 W/m 0,0 km/h (0 Bft) 100,00 %
16.09.2019 09:00 14,8 C 15,0 C 14,4 C 95 % 1020,0 hPa 0,0 l/m 0 min 0 min 39 W/m 0,0 km/h (0 Bft) 97,83 %
16.09.2019 09:02 14,8 C 15,0 C 14,4 C 95 % 1020,1 hPa 0,0 l/m 0 min 0 min 42 W/m 0,0 km/h (0 Bft) 97,87 %
16.09.2019 09:04 14,8 C 15,0 C 14,4 C 95 % 1020,1 hPa 0,0 l/m 0 min 0 min 49 W/m 0,0 km/h (0 Bft) 97,87 %
16.09.2019 09:06 14,8 C 15,0 C 14,4 C 95 % 1020,0 hPa 0,0 l/m 0 min 0 min 59 W/m 0,0 km/h (0 Bft) 97,87 %
16.09.2019 09:08 14,8 C 15,0 C 14,4 C 95 % 1020,1 hPa 0,0 l/m 0 min 0 min 65 W/m 0,0 km/h (0 Bft) 97,87 %
16.09.2019 09:10 14,9 C 15,6 C 14,4 C 95 % 1020,1 hPa 0,0 l/m 0 min 0 min 63 W/m 0,0 km/h (0 Bft) 97,87 %
16.09.2019 09:12 14,9 C 15,6 C 15,0 C 95 % 1020,2 hPa 0,0 l/m 0 min 0 min 60 W/m 0,0 km/h (0 Bft) 97,83 %
16.09.2019 09:14 14,9 C 15,6 C 15,0 C 96 % 1020,2 hPa 0,0 l/m 0 min 0 min 63 W/m 0,0 km/h (0 Bft) 97,87 %
16.09.2019 09:16 14,9 C 15,6 C 15,0 C 96 % 1020,2 hPa 0,0 l/m 0 min 0 min 62 W/m 0,0 km/h (0 Bft) 97,87 %
16.09.2019 09:18 15,0 C 15,6 C 15,0 C 96 % 1020,3 hPa 0,0 l/m 0 min 0 min 53 W/m 0,0 km/h (0 Bft) 95,74 %
16.09.2019 09:20 15,0 C 15,6 C 15,0 C 96 % 1020,3 hPa 0,0 l/m 0 min 0 min 47 W/m 0,0 km/h (0 Bft) 97,87 %
16.09.2019 09:22 15,1 C 15,6 C 15,0 C 96 % 1020,3 hPa 0,0 l/m 0 min 0 min 53 W/m 0,0 km/h (0 Bft) 97,87 %
16.09.2019 09:24 15,1 C 15,6 C 15,0 C 96 % 1020,3 hPa 0,0 l/m 0 min 0 min 62 W/m 0,0 km/h (0 Bft) 97,83 %
16.09.2019 09:26 15,1 C 15,6 C 15,0 C 96 % 1020,3 hPa 0,0 l/m 0 min 0 min 62 W/m 3,2 km/h (1 Bft) 95,74 %
16.09.2019 09:28 15,2 C 15,6 C 15,0 C 96 % 1020,3 hPa 0,0 l/m 0 min 0 min 55 W/m 0,0 km/h (0 Bft) 97,87 %
16.09.2019 09:30 15,2 C 15,6 C 15,0 C 95 % 1020,4 hPa 0,0 l/m 0 min 0 min 46 W/m 0,0 km/h (0 Bft) 97,87 %
16.09.2019 09:32 15,2 C 15,6 C 15,0 C 95 % 1020,5 hPa 0,0 l/m 0 min 0 min 45 W/m 0,0 km/h (0 Bft) 97,87 %
16.09.2019 09:34 15,2 C 15,6 C 15,0 C 95 % 1020,4 hPa 0,0 l/m 0 min 0 min 48 W/m 3,2 km/h (1 Bft) 97,83 %
16.09.2019 09:36 15,3 C 15,6 C 15,0 C 95 % 1020,3 hPa 0,0 l/m 0 min 0 min 71 W/m 0,0 km/h (0 Bft) 95,74 %
16.09.2019 09:38 15,3 C 15,6 C 15,0 C 96 % 1020,4 hPa 0,0 l/m 0 min 0 min 82 W/m 0,0 km/h (0 Bft) 100,00 %
16.09.2019 09:40 15,3 C 15,6 C 15,0 C 96 % 1020,5 hPa 0,0 l/m 0 min 0 min 64 W/m 0,0 km/h (0 Bft) 95,74 %
16.09.2019 09:42 15,3 C 15,6 C 15,0 C 96 % 1020,5 hPa 0,0 l/m 0 min 0 min 46 W/m 0,0 km/h (0 Bft) 97,87 %
16.09.2019 09:44 15,4 C 15,6 C 15,0 C 96 % 1020,4 hPa 0,0 l/m 0 min 0 min 50 W/m 0,0 km/h (0 Bft) 97,87 %
16.09.2019 09:46 15,4 C 15,6 C 15,0 C 95 % 1020,4 hPa 0,0 l/m 0 min 0 min 66 W/m 0,0 km/h (0 Bft) 97,87 %
16.09.2019 09:48 15,4 C 15,6 C 15,0 C 95 % 1020,2 hPa 0,0 l/m 0 min 0 min 84 W/m 0,0 km/h (0 Bft) 100,00 %
16.09.2019 09:50 15,4 C 16,1 C 15,0 C 95 % 1020,2 hPa 0,0 l/m 0 min 0 min 82 W/m 0,0 km/h (0 Bft) 100,00 %
16.09.2019 09:52 15,4 C 16,1 C 15,6 C 95 % 1020,2 hPa 0,0 l/m 0 min 0 min 68 W/m 0,0 km/h (0 Bft) 97,87 %
16.09.2019 09:54 15,5 C 16,1 C 15,0 C 95 % 1020,2 hPa 0,0 l/m 0 min 0 min 61 W/m 0,0 km/h (0 Bft) 95,74 %
16.09.2019 09:56 15,5 C 15,6 C 15,0 C 95 % 1020,3 hPa 0,0 l/m 0 min 0 min 59 W/m 0,0 km/h (0 Bft) 100,00 %
16.09.2019 09:58 15,5 C 15,6 C 15,0 C 95 % 1020,2 hPa 0,0 l/m 0 min 2 min 64 W/m 0,0 km/h (0 Bft) 100,00 %
16.09.2019 10:00 15,6 C 15,0 C 15,0 C 95 % 1020,1 hPa 0,0 l/m 0 min 2 min 75 W/m 3,2 km/h (1 Bft) 97,87 %
16.09.2019 10:02 15,6 C 15,0 C 14,4 C 95 % 1019,9 hPa 0,0 l/m 0 min 2 min 77 W/m 0,0 km/h (0 Bft) 100,00 %
16.09.2019 10:04 15,6 C 14,4 C 14,4 C 95 % 1020,0 hPa 0,0 l/m 0 min 2 min 82 W/m 6,4 km/h (2 Bft) 100,00 %
16.09.2019 10:06 15,6 C 15,0 C 14,4 C 95 % 1019,9 hPa 0,0 l/m 0 min 2 min 90 W/m 0,0 km/h (0 Bft) 100,00 %
16.09.2019 10:08 15,6 C 15,0 C 14,4 C 95 % 1019,8 hPa 0,0 l/m 0 min 2 min 100 W/m 0,0 km/h (0 Bft) 100,00 %
16.09.2019 10:10 15,6 C 15,0 C 14,4 C 95 % 1019,9 hPa 0,0 l/m 0 min 2 min 108 W/m 0,0 km/h (0 Bft) 100,00 %
16.09.2019 10:12 15,7 C 15,0 C 14,4 C 95 % 1020,1 hPa 0,0 l/m 0 min 0 min 113 W/m 0,0 km/h (0 Bft) 100,00 %
16.09.2019 10:14 15,7 C 15,6 C 14,4 C 95 % 1020,1 hPa 0,0 l/m 0 min 0 min 102 W/m 0,0 km/h (0 Bft) 100,00 %
16.09.2019 10:16 15,7 C 15,6 C 14,4 C 95 % 1020,2 hPa 0,0 l/m 0 min 0 min 86 W/m 3,2 km/h (1 Bft) 100,00 %
16.09.2019 10:18 15,7 C 15,0 C 14,4 C 95 % 1020,2 hPa 0,0 l/m 0 min 0 min 81 W/m 0,0 km/h (0 Bft) 100,00 %
16.09.2019 10:20 15,8 C 15,0 C 14,4 C 95 % 1020,3 hPa 0,0 l/m 0 min 0 min 73 W/m 0,0 km/h (0 Bft) 100,00 %
16.09.2019 10:22 15,8 C 15,0 C 14,4 C 95 % 1020,2 hPa 0,0 l/m 0 min 0 min 70 W/m 0,0 km/h (0 Bft) 93,62 %
16.09.2019 10:24 15,8 C 15,0 C 14,4 C 95 % 1020,3 hPa 0,0 l/m 0 min 0 min 75 W/m 3,2 km/h (1 Bft) 95,65 %
16.09.2019 10:26 15,9 C 15,0 C 14,4 C 95 % 1020,1 hPa 0,0 l/m 0 min 0 min 87 W/m 3,2 km/h (1 Bft) 100,00 %
16.09.2019 10:28 15,8 C 15,0 C 15,0 C 94 % 1020,0 hPa 0,0 l/m 0 min 0 min 101 W/m 0,0 km/h (0 Bft) 100,00 %
16.09.2019 10:30 15,9 C 15,6 C 15,0 C 94 % 1019,9 hPa 0,0 l/m 0 min 0 min 101 W/m 0,0 km/h (0 Bft) 95,74 %
16.09.2019 10:32 15,9 C 15,6 C 15,0 C 94 % 1019,9 hPa 0,0 l/m 0 min 0 min 96 W/m 3,2 km/h (1 Bft) 97,87 %
16.09.2019 10:34 15,9 C 15,6 C 15,0 C 94 % 1019,9 hPa 0,0 l/m 0 min 0 min 95 W/m 0,0 km/h (0 Bft) 100,00 %
16.09.2019 10:36 15,9 C 15,6 C 15,0 C 94 % 1020,0 hPa 0,0 l/m 0 min 0 min 97 W/m 0,0 km/h (0 Bft) 100,00 %
16.09.2019 10:38 15,9 C 15,6 C 15,0 C 94 % 1020,0 hPa 0,0 l/m 0 min 0 min 95 W/m 6,4 km/h (2 Bft) 100,00 %
16.09.2019 10:40 15,9 C 15,6 C 15,0 C 94 % 1019,9 hPa 0,0 l/m 0 min 0 min 95 W/m 0,0 km/h (0 Bft) 97,87 %
16.09.2019 10:42 15,9 C 15,6 C 15,0 C 94 % 1019,9 hPa 0,0 l/m 0 min 0 min 98 W/m 0,0 km/h (0 Bft) 95,74 %
16.09.2019 10:44 15,9 C 15,6 C 15,0 C 94 % 1019,8 hPa 0,0 l/m 0 min 0 min 106 W/m 0,0 km/h (0 Bft) 95,74 %
16.09.2019 10:46 16,0 C 16,1 C 15,6 C 94 % 1019,9 hPa 0,0 l/m 0 min 0 min 116 W/m 0,0 km/h (0 Bft) 95,74 %
16.09.2019 10:48 16,0 C 16,1 C 15,6 C 93 % 1020,0 hPa 0,0 l/m 0 min 0 min 121 W/m 0,0 km/h (0 Bft) 95,65 %
16.09.2019 10:50 16,0 C 16,1 C 15,6 C 93 % 1019,9 hPa 0,0 l/m 0 min 0 min 122 W/m 3,2 km/h (1 Bft) 95,74 %
16.09.2019 10:52 16,1 C 16,1 C 15,6 C 93 % 1019,8 hPa 0,0 l/m 0 min 0 min 123 W/m 3,2 km/h (1 Bft) 93,62 %
16.09.2019 10:54 16,1 C 16,1 C 15,6 C 93 % 1019,9 hPa 0,0 l/m 0 min 0 min 123 W/m 3,2 km/h (1 Bft) 95,74 %
16.09.2019 10:56 16,1 C 16,1 C 15,6 C 93 % 1019,9 hPa 0,0 l/m 0 min 0 min 124 W/m 6,4 km/h (2 Bft) 95,74 %
16.09.2019 10:58 16,1 C 16,1 C 15,6 C 93 % 1020,0 hPa 0,0 l/m 0 min 0 min 127 W/m 9,7 km/h (2 Bft) 95,65 %
16.09.2019 11:00 16,1 C 16,1 C 15,6 C 93 % 1020,0 hPa 0,0 l/m 0 min 0 min 132 W/m 6,4 km/h (2 Bft) 93,62 %
16.09.2019 11:02 16,1 C 16,7 C 15,6 C 92 % 1020,0 hPa 0,0 l/m 0 min 0 min 136 W/m 3,2 km/h (1 Bft) 93,62 %
16.09.2019 11:04 16,2 C 16,7 C 16,1 C 92 % 1020,0 hPa 0,0 l/m 0 min 0 min 138 W/m 0,0 km/h (0 Bft) 95,74 %
16.09.2019 11:06 16,2 C 16,7 C 16,1 C 92 % 1020,1 hPa 0,0 l/m 0 min 0 min 142 W/m 9,7 km/h (2 Bft) 95,74 %
16.09.2019 11:08 16,2 C 17,2 C 16,1 C 92 % 1020,0 hPa 0,0 l/m 0 min 0 min 146 W/m 6,4 km/h (2 Bft) 95,74 %
16.09.2019 11:10 16,2 C 17,2 C 16,1 C 92 % 1019,9 hPa 0,0 l/m 0 min 0 min 155 W/m 3,2 km/h (1 Bft) 95,65 %
16.09.2019 11:12 16,3 C 17,2 C 16,7 C 92 % 1019,9 hPa 0,0 l/m 0 min 0 min 155 W/m 0,0 km/h (0 Bft) 95,74 %
16.09.2019 11:14 16,3 C 17,8 C 16,7 C 91 % 1019,9 hPa 0,0 l/m 0 min 0 min 149 W/m 0,0 km/h (0 Bft) 95,74 %
16.09.2019 11:16 16,3 C 17,8 C 16,7 C 91 % 1019,9 hPa 0,0 l/m 0 min 0 min 150 W/m 0,0 km/h (0 Bft) 95,74 %
16.09.2019 11:18 16,4 C 17,8 C 16,7 C 91 % 1020,0 hPa 0,0 l/m 0 min 0 min 137 W/m 0,0 km/h (0 Bft) 95,74 %
16.09.2019 11:20 16,4 C 17,2 C 16,7 C 91 % 1020,0 hPa 0,0 l/m 0 min 0 min 128 W/m 3,2 km/h (1 Bft) 95,74 %
16.09.2019 11:22 16,4 C 17,2 C 16,7 C 91 % 1020,0 hPa 0,0 l/m 0 min 0 min 127 W/m 0,0 km/h (0 Bft) 93,48 %
16.09.2019 11:24 16,4 C 17,8 C 16,7 C 90 % 1019,9 hPa 0,0 l/m 0 min 0 min 123 W/m 0,0 km/h (0 Bft) 95,74 %
16.09.2019 11:26 16,5 C 17,8 C 16,7 C 90 % 1019,9 hPa 0,0 l/m 0 min 0 min 118 W/m 0,0 km/h (0 Bft) 95,74 %
16.09.2019 11:28 16,6 C 17,8 C 16,7 C 90 % 1019,9 hPa 0,0 l/m 0 min 0 min 118 W/m 0,0 km/h (0 Bft) 95,74 %
16.09.2019 11:30 16,6 C 17,8 C 16,7 C 90 % 1019,9 hPa 0,0 l/m 0 min 0 min 113 W/m 0,0 km/h (0 Bft) 89,36 %
16.09.2019 11:32 16,7 C 17,8 C 16,7 C 90 % 1019,9 hPa 0,0 l/m 0 min 0 min 105 W/m 0,0 km/h (0 Bft) 93,62 %
16.09.2019 11:34 16,7 C 17,2 C 16,7 C 90 % 1020,0 hPa 0,0 l/m 0 min 0 min 108 W/m 3,2 km/h (1 Bft) 95,65 %
16.09.2019 11:36 16,7 C 17,8 C 16,7 C 89 % 1019,9 hPa 0,0 l/m 0 min 0 min 126 W/m 0,0 km/h (0 Bft) 97,87 %
16.09.2019 11:38 16,7 C 17,8 C 16,7 C 89 % 1019,9 hPa 0,0 l/m 0 min 0 min 137 W/m 0,0 km/h (0 Bft) 100,00 %
16.09.2019 11:40 16,8 C 17,8 C 16,7 C 89 % 1019,9 hPa 0,0 l/m 0 min 0 min 141 W/m 3,2 km/h (1 Bft) 97,87 %
16.09.2019 11:42 16,8 C 18,3 C 17,2 C 88 % 1020,0 hPa 0,0 l/m 0 min 0 min 155 W/m 0,0 km/h (0 Bft) 95,74 %
16.09.2019 11:44 16,8 C 18,3 C 17,2 C 88 % 1019,9 hPa 0,0 l/m 0 min 0 min 167 W/m 0,0 km/h (0 Bft) 97,87 %
16.09.2019 11:46 16,9 C 18,3 C 17,2 C 88 % 1020,0 hPa 0,0 l/m 0 min 0 min 155 W/m 0,0 km/h (0 Bft) 97,83 %
16.09.2019 11:48 16,9 C 18,3 C 17,2 C 88 % 1020,0 hPa 0,0 l/m 0 min 0 min 129 W/m 0,0 km/h (0 Bft) 97,87 %
16.09.2019 11:50 16,9 C 17,8 C 16,7 C 87 % 1020,0 hPa 0,0 l/m 0 min 0 min 113 W/m 6,4 km/h (2 Bft) 97,87 %
16.09.2019 11:52 17,0 C 17,8 C 16,7 C 87 % 1020,1 hPa 0,0 l/m 0 min 0 min 105 W/m 3,2 km/h (1 Bft) 100,00 %
16.09.2019 11:54 17,1 C 17,8 C 16,7 C 86 % 1020,1 hPa 0,0 l/m 0 min 0 min 107 W/m 3,2 km/h (1 Bft) 97,87 %
16.09.2019 11:56 17,1 C 17,2 C 16,7 C 86 % 1020,1 hPa 0,0 l/m 0 min 0 min 117 W/m 3,2 km/h (1 Bft) 97,87 %
16.09.2019 11:58 17,1 C 17,8 C 16,7 C 86 % 1020,1 hPa 0,0 l/m 0 min 0 min 126 W/m 3,2 km/h (1 Bft) 95,65 %
16.09.2019 12:00 17,1 C 17,8 C 16,7 C 85 % 1020,0 hPa 0,0 l/m 0 min 0 min 140 W/m 3,2 km/h (1 Bft) 97,87 %
16.09.2019 12:02 17,2 C 17,8 C 16,7 C 85 % 1020,0 hPa 0,0 l/m 0 min 0 min 158 W/m 3,2 km/h (1 Bft) 97,87 %
16.09.2019 12:04 17,2 C 18,3 C 17,2 C 85 % 1020,0 hPa 0,0 l/m 0 min 0 min 176 W/m 0,0 km/h (0 Bft) 97,87 %
16.09.2019 12:08 17,3 C 18,9 C 17,8 C 85 % 1019,8 hPa 0,0 l/m 0 min 0 min 203 W/m 6,4 km/h (2 Bft) 96,77 %
16.09.2019 12:10 17,3 C 18,9 C 17,8 C 85 % 1019,8 hPa 0,0 l/m 0 min 0 min 217 W/m 0,0 km/h (0 Bft) 97,87 %
16.09.2019 12:12 17,4 C 18,9 C 17,8 C 84 % 1019,8 hPa 0,0 l/m 0 min 0 min 195 W/m 3,2 km/h (1 Bft) 95,74 %
16.09.2019 12:14 17,4 C 18,3 C 17,8 C 84 % 1019,8 hPa 0,0 l/m 0 min 0 min 179 W/m 9,7 km/h (2 Bft) 97,87 %
16.09.2019 12:16 17,4 C 18,3 C 17,2 C 84 % 1019,7 hPa 0,0 l/m 0 min 0 min 190 W/m 6,4 km/h (2 Bft) 91,49 %
16.09.2019 12:18 17,5 C 18,3 C 17,2 C 83 % 1019,7 hPa 0,0 l/m 0 min 0 min 201 W/m 6,4 km/h (2 Bft) 100,00 %
16.09.2019 12:20 17,6 C 18,3 C 17,2 C 83 % 1019,8 hPa 0,0 l/m 0 min 0 min 184 W/m 9,7 km/h (2 Bft) 100,00 %
16.09.2019 12:22 17,6 C 18,3 C 17,8 C 83 % 1019,7 hPa 0,0 l/m 0 min 0 min 177 W/m 3,2 km/h (1 Bft) 100,00 %
16.09.2019 12:24 17,6 C 18,3 C 17,8 C 83 % 1019,7 hPa 0,0 l/m 0 min 0 min 187 W/m 3,2 km/h (1 Bft) 95,74 %
16.09.2019 12:26 17,6 C 18,3 C 17,8 C 83 % 1019,8 hPa 0,0 l/m 0 min 0 min 180 W/m 0,0 km/h (0 Bft) 97,87 %
16.09.2019 12:28 17,7 C 18,3 C 17,8 C 83 % 1019,7 hPa 0,0 l/m 0 min 0 min 172 W/m 6,4 km/h (2 Bft) 100,00 %
16.09.2019 12:30 17,7 C 18,9 C 17,8 C 83 % 1019,8 hPa 0,0 l/m 0 min 0 min 179 W/m 3,2 km/h (1 Bft) 97,87 %
16.09.2019 12:32 17,7 C 18,9 C 17,8 C 83 % 1019,8 hPa 0,0 l/m 0 min 0 min 185 W/m 9,7 km/h (2 Bft) 100,00 %
16.09.2019 12:34 17,8 C 18,9 C 17,8 C 84 % 1019,8 hPa 0,0 l/m 0 min 0 min 175 W/m 0,0 km/h (0 Bft) 97,87 %
16.09.2019 12:36 17,8 C 18,9 C 17,8 C 83 % 1019,8 hPa 0,0 l/m 0 min 0 min 153 W/m 0,0 km/h (0 Bft) 100,00 %
16.09.2019 12:38 17,9 C 18,9 C 17,8 C 84 % 1019,8 hPa 0,0 l/m 0 min 0 min 140 W/m 0,0 km/h (0 Bft) 100,00 %
16.09.2019 12:40 17,9 C 18,9 C 17,8 C 84 % 1019,8 hPa 0,0 l/m 0 min 0 min 148 W/m 0,0 km/h (0 Bft) 100,00 %
16.09.2019 12:42 18,0 C 18,9 C 17,8 C 83 % 1019,9 hPa 0,0 l/m 0 min 0 min 163 W/m 12,9 km/h (3 Bft) 100,00 %
16.09.2019 12:44 18,0 C 18,9 C 17,8 C 83 % 1019,8 hPa 0,0 l/m 0 min 0 min 185 W/m 0,0 km/h (0 Bft) 100,00 %
16.09.2019 12:46 18,1 C 18,9 C 17,8 C 83 % 1019,8 hPa 0,0 l/m 0 min 0 min 195 W/m 0,0 km/h (0 Bft) 100,00 %
16.09.2019 12:48 18,1 C 18,9 C 18,3 C 83 % 1019,8 hPa 0,0 l/m 0 min 0 min 197 W/m 3,2 km/h (1 Bft) 100,00 %
16.09.2019 12:50 18,1 C 18,9 C 17,8 C 83 % 1019,8 hPa 0,0 l/m 0 min 0 min 191 W/m 6,4 km/h (2 Bft) 100,00 %
16.09.2019 12:52 18,1 C 18,9 C 17,8 C 82 % 1019,7 hPa 0,0 l/m 0 min 0 min 185 W/m 3,2 km/h (1 Bft) 100,00 %
16.09.2019 12:54 18,1 C 18,9 C 17,8 C 83 % 1019,7 hPa 0,0 l/m 0 min 0 min 184 W/m 3,2 km/h (1 Bft) 97,87 %
16.09.2019 12:56 18,2 C 18,9 C 18,3 C 83 % 1019,6 hPa 0,0 l/m 0 min 0 min 180 W/m 9,7 km/h (2 Bft) 97,87 %
16.09.2019 12:58 18,2 C 18,9 C 18,3 C 83 % 1019,6 hPa 0,0 l/m 0 min 0 min 185 W/m 6,4 km/h (2 Bft) 100,00 %
16.09.2019 13:00 18,2 C 18,9 C 18,3 C 83 % 1019,7 hPa 0,0 l/m 0 min 0 min 209 W/m 3,2 km/h (1 Bft) 97,87 %
16.09.2019 13:02 18,3 C 19,4 C 18,3 C 83 % 1019,7 hPa 0,0 l/m 0 min 0 min 231 W/m 3,2 km/h (1 Bft) 100,00 %
16.09.2019 13:04 18,3 C 19,4 C 18,3 C 83 % 1019,7 hPa 0,0 l/m 0 min 0 min 230 W/m 6,4 km/h (2 Bft) 100,00 %
16.09.2019 13:06 18,3 C 19,4 C 18,3 C 83 % 1019,7 hPa 0,0 l/m 0 min 0 min 215 W/m 3,2 km/h (1 Bft) 100,00 %
16.09.2019 13:08 18,4 C 20,0 C 18,3 C 83 % 1019,6 hPa 0,0 l/m 0 min 0 min 214 W/m 0,0 km/h (0 Bft) 100,00 %
16.09.2019 13:10 18,4 C 20,0 C 18,9 C 83 % 1019,6 hPa 0,0 l/m 0 min 0 min 215 W/m 6,4 km/h (2 Bft) 100,00 %
16.09.2019 13:12 18,4 C 19,4 C 18,3 C 83 % 1019,5 hPa 0,0 l/m 0 min 0 min 211 W/m 6,4 km/h (2 Bft) 100,00 %
16.09.2019 13:14 18,5 C 20,0 C 18,9 C 83 % 1019,5 hPa 0,0 l/m 0 min 0 min 221 W/m 3,2 km/h (1 Bft) 100,00 %
16.09.2019 13:16 18,6 C 19,4 C 18,3 C 83 % 1019,7 hPa 0,0 l/m 0 min 0 min 168 W/m 6,4 km/h (2 Bft) 97,83 %
16.09.2019 13:18 18,6 C 19,4 C 18,3 C 83 % 1019,6 hPa 0,0 l/m 0 min 0 min 163 W/m 0,0 km/h (0 Bft) 100,00 %
16.09.2019 13:20 18,6 C 19,4 C 18,3 C 83 % 1019,6 hPa 0,0 l/m 0 min 0 min 171 W/m 6,4 km/h (2 Bft) 100,00 %
16.09.2019 13:22 18,6 C 19,4 C 18,3 C 83 % 1019,5 hPa 0,0 l/m 0 min 0 min 162 W/m 3,2 km/h (1 Bft) 100,00 %
16.09.2019 13:24 18,6 C 19,4 C 18,3 C 83 % 1019,6 hPa 0,0 l/m 0 min 0 min 154 W/m 0,0 km/h (0 Bft) 100,00 %
16.09.2019 13:26 18,7 C 19,4 C 18,3 C 83 % 1019,5 hPa 0,0 l/m 0 min 0 min 144 W/m 0,0 km/h (0 Bft) 100,00 %
16.09.2019 13:28 18,7 C 19,4 C 18,3 C 83 % 1019,5 hPa 0,0 l/m 0 min 0 min 133 W/m 3,2 km/h (1 Bft) 100,00 %
16.09.2019 13:30 18,7 C 18,9 C 18,3 C 83 % 1019,5 hPa 0,0 l/m 0 min 0 min 118 W/m 3,2 km/h (1 Bft) 97,87 %
16.09.2019 13:32 18,7 C 18,9 C 17,8 C 82 % 1019,5 hPa 0,0 l/m 0 min 0 min 112 W/m 0,0 km/h (0 Bft) 100,00 %
16.09.2019 13:34 18,7 C 18,9 C 17,8 C 83 % 1019,5 hPa 0,0 l/m 0 min 0 min 136 W/m 3,2 km/h (1 Bft) 100,00 %
16.09.2019 13:36 18,7 C 18,9 C 17,8 C 83 % 1019,6 hPa 0,0 l/m 0 min 0 min 143 W/m 3,2 km/h (1 Bft) 100,00 %
16.09.2019 13:38 18,8 C 18,9 C 18,3 C 82 % 1019,5 hPa 0,0 l/m 0 min 0 min 130 W/m 0,0 km/h (0 Bft) 97,83 %
16.09.2019 13:40 18,8 C 18,9 C 17,8 C 82 % 1019,5 hPa 0,0 l/m 0 min 0 min 132 W/m 9,7 km/h (2 Bft) 97,87 %
16.09.2019 13:42 18,8 C 18,9 C 17,8 C 82 % 1019,5 hPa 0,0 l/m 0 min 0 min 134 W/m 0,0 km/h (0 Bft) 100,00 %
16.09.2019 13:44 18,8 C 18,9 C 17,8 C 82 % 1019,5 hPa 0,0 l/m 0 min 0 min 116 W/m 0,0 km/h (0 Bft) 97,87 %
16.09.2019 13:46 18,8 C 18,9 C 17,8 C 82 % 1019,5 hPa 0,0 l/m 0 min 0 min 92 W/m 3,2 km/h (1 Bft) 97,87 %
16.09.2019 13:48 18,8 C 18,9 C 17,8 C 82 % 1019,5 hPa 0,0 l/m 0 min 0 min 90 W/m 0,0 km/h (0 Bft) 95,74 %
16.09.2019 13:50 18,7 C 18,9 C 17,8 C 82 % 1019,5 hPa 0,0 l/m 0 min 0 min 114 W/m 0,0 km/h (0 Bft) 97,83 %
16.09.2019 13:52 18,7 C 18,9 C 17,8 C 82 % 1019,5 hPa 0,0 l/m 0 min 0 min 125 W/m 3,2 km/h (1 Bft) 95,74 %
16.09.2019 13:54 18,7 C 18,9 C 17,8 C 82 % 1019,5 hPa 0,0 l/m 0 min 0 min 109 W/m 0,0 km/h (0 Bft) 95,74 %
16.09.2019 13:56 18,7 C 18,9 C 17,8 C 82 % 1019,5 hPa 0,0 l/m 0 min 0 min 94 W/m 3,2 km/h (1 Bft) 95,74 %
16.09.2019 13:58 18,7 C 18,9 C 17,8 C 82 % 1019,5 hPa 0,0 l/m 0 min 0 min 110 W/m 0,0 km/h (0 Bft) 97,87 %
16.09.2019 14:00 18,7 C 18,9 C 17,8 C 83 % 1019,5 hPa 0,0 l/m 0 min 0 min 155 W/m 0,0 km/h (0 Bft) 95,74 %
16.09.2019 14:02 18,7 C 18,9 C 17,8 C 83 % 1019,5 hPa 0,0 l/m 0 min 0 min 145 W/m 6,4 km/h (2 Bft) 93,48 %
16.09.2019 14:04 18,7 C 18,9 C 17,8 C 83 % 1019,5 hPa 0,0 l/m 0 min 0 min 109 W/m 6,4 km/h (2 Bft) 93,62 %
16.09.2019 14:06 18,7 C 18,9 C 17,8 C 83 % 1019,5 hPa 0,0 l/m 0 min 0 min 113 W/m 0,0 km/h (0 Bft) 95,74 %
16.09.2019 14:08 18,7 C 18,9 C 17,8 C 83 % 1019,6 hPa 0,0 l/m 0 min 0 min 134 W/m 0,0 km/h (0 Bft) 91,49 %
16.09.2019 14:10 18,7 C 18,9 C 17,8 C 83 % 1019,5 hPa 0,0 l/m 0 min 0 min 150 W/m 0,0 km/h (0 Bft) 95,74 %
16.09.2019 14:12 18,7 C 18,9 C 18,3 C 83 % 1019,5 hPa 0,0 l/m 0 min 0 min 153 W/m 0,0 km/h (0 Bft) 95,74 %
16.09.2019 14:14 18,7 C 18,9 C 18,3 C 83 % 1019,5 hPa 0,0 l/m 0 min 0 min 174 W/m 3,2 km/h (1 Bft) 91,30 %
16.09.2019 14:16 18,8 C 18,9 C 18,3 C 83 % 1019,5 hPa 0,0 l/m 0 min 0 min 142 W/m 3,2 km/h (1 Bft) 93,62 %
16.09.2019 14:18 18,8 C 18,9 C 18,3 C 83 % 1019,4 hPa 0,0 l/m 0 min 0 min 123 W/m 0,0 km/h (0 Bft) 89,36 %
16.09.2019 14:20 18,7 C 18,9 C 18,3 C 83 % 1019,4 hPa 0,0 l/m 0 min 0 min 115 W/m 3,2 km/h (1 Bft) 91,49 %
16.09.2019 14:22 18,8 C 18,9 C 18,3 C 83 % 1019,4 hPa 0,0 l/m 0 min 0 min 118 W/m 0,0 km/h (0 Bft) 91,49 %
16.09.2019 14:24 18,8 C 18,9 C 17,8 C 83 % 1019,4 hPa 0,0 l/m 0 min 0 min 111 W/m 6,4 km/h (2 Bft) 93,62 %
16.09.2019 14:26 18,8 C 18,9 C 17,8 C 83 % 1019,5 hPa 0,0 l/m 0 min 0 min 99 W/m 6,4 km/h (2 Bft) 93,48 %
16.09.2019 14:28 18,7 C 18,3 C 17,8 C 83 % 1019,5 hPa 0,0 l/m 0 min 0 min 101 W/m 3,2 km/h (1 Bft) 93,62 %
16.09.2019 14:30 18,7 C 18,9 C 17,8 C 83 % 1019,5 hPa 0,0 l/m 0 min 0 min 105 W/m 3,2 km/h (1 Bft) 93,62 %
16.09.2019 14:32 18,7 C 18,3 C 17,8 C 83 % 1019,5 hPa 0,0 l/m 0 min 0 min 105 W/m 9,7 km/h (2 Bft) 93,62 %
16.09.2019 14:34 18,7 C 18,3 C 17,8 C 83 % 1019,4 hPa 0,0 l/m 0 min 0 min 109 W/m 12,9 km/h (3 Bft) 93,62 %
16.09.2019 14:36 18,7 C 18,9 C 17,8 C 83 % 1019,4 hPa 0,0 l/m 0 min 0 min 123 W/m 6,4 km/h (2 Bft) 91,30 %
16.09.2019 14:38 18,7 C 18,9 C 17,8 C 83 % 1019,4 hPa 0,0 l/m 0 min 0 min 129 W/m 3,2 km/h (1 Bft) 94,34 %
16.09.2019 14:40 18,7 C 18,9 C 18,3 C 83 % 1019,5 hPa 0,0 l/m 0 min 0 min 129 W/m 3,2 km/h (1 Bft) 95,74 %
16.09.2019 14:42 18,7 C 18,9 C 18,3 C 83 % 1019,4 hPa 0,0 l/m 0 min 0 min 130 W/m 0,0 km/h (0 Bft) 93,62 %
16.09.2019 14:44 18,7 C 18,9 C 18,3 C 83 % 1019,5 hPa 0,0 l/m 0 min 0 min 138 W/m 0,0 km/h (0 Bft) 93,62 %
16.09.2019 14:46 18,8 C 18,9 C 18,3 C 83 % 1019,5 hPa 0,0 l/m 0 min 0 min 134 W/m 3,2 km/h (1 Bft) 97,87 %
16.09.2019 14:48 18,8 C 18,9 C 18,3 C 83 % 1019,5 hPa 0,0 l/m 0 min 0 min 129 W/m 0,0 km/h (0 Bft) 95,74 %
16.09.2019 14:50 18,8 C 18,9 C 17,8 C 83 % 1019,5 hPa 0,0 l/m 0 min 0 min 131 W/m 3,2 km/h (1 Bft) 95,65 %
16.09.2019 14:52 18,8 C 18,9 C 17,8 C 83 % 1019,5 hPa 0,0 l/m 0 min 0 min 145 W/m 3,2 km/h (1 Bft) 97,87 %
16.09.2019 14:54 18,8 C 18,9 C 17,8 C 83 % 1019,5 hPa 0,0 l/m 0 min 0 min 160 W/m 0,0 km/h (0 Bft) 97,87 %
16.09.2019 14:56 18,8 C 18,9 C 18,3 C 83 % 1019,5 hPa 0,0 l/m 0 min 0 min 152 W/m 0,0 km/h (0 Bft) 95,74 %
16.09.2019 14:58 18,8 C 18,9 C 18,3 C 83 % 1019,6 hPa 0,0 l/m 0 min 0 min 161 W/m 0,0 km/h (0 Bft) 97,87 %
16.09.2019 15:00 18,8 C 18,9 C 18,3 C 83 % 1019,5 hPa 0,0 l/m 0 min 0 min 146 W/m 0,0 km/h (0 Bft) 97,83 %
16.09.2019 15:02 18,8 C 18,9 C 17,8 C 83 % 1019,6 hPa 0,0 l/m 0 min 0 min 138 W/m 6,4 km/h (2 Bft) 95,83 %
16.09.2019 15:04 18,8 C 18,9 C 17,8 C 84 % 1019,6 hPa 0,0 l/m 0 min 0 min 152 W/m 3,2 km/h (1 Bft) 97,14 %
16.09.2019 15:06 18,8 C 18,3 C 17,2 C 84 % 1019,6 hPa 0,0 l/m 0 min 0 min 124 W/m 9,7 km/h (2 Bft) 98,08 %
16.09.2019 15:08 18,8 C 17,8 C 17,2 C 84 % 1019,6 hPa 0,0 l/m 0 min 0 min 99 W/m 9,7 km/h (2 Bft) 97,87 %
16.09.2019 15:10 18,8 C 17,2 C 16,7 C 85 % 1019,6 hPa 0,0 l/m 0 min 2 min 89 W/m 3,2 km/h (1 Bft) 97,87 %
16.09.2019 15:12 18,7 C 17,2 C 16,7 C 85 % 1019,7 hPa 0,0 l/m 0 min 0 min 94 W/m 0,0 km/h (0 Bft) 97,83 %
16.09.2019 15:14 18,7 C 17,2 C 16,7 C 85 % 1019,7 hPa 0,0 l/m 0 min 0 min 87 W/m 0,0 km/h (0 Bft) 91,49 %
16.09.2019 15:16 18,7 C 16,7 C 16,1 C 85 % 1019,7 hPa 0,0 l/m 0 min 0 min 65 W/m 9,7 km/h (2 Bft) 100,00 %
16.09.2019 15:18 18,7 C 16,1 C 16,1 C 86 % 1019,9 hPa 0,0 l/m 0 min 0 min 62 W/m 3,2 km/h (1 Bft) 100,00 %
16.09.2019 15:20 18,6 C 16,1 C 16,1 C 87 % 1019,9 hPa 0,0 l/m 0 min 0 min 68 W/m 0,0 km/h (0 Bft) 97,87 %
16.09.2019 15:22 18,6 C 16,1 C 16,1 C 87 % 1019,9 hPa 0,0 l/m 0 min 0 min 61 W/m 3,2 km/h (1 Bft) 100,00 %
16.09.2019 15:24 18,5 C 16,1 C 15,6 C 87 % 1019,9 hPa 0,0 l/m 0 min 2 min 56 W/m 0,0 km/h (0 Bft) 97,83 %
16.09.2019 15:26 18,4 C 16,1 C 15,6 C 88 % 1019,9 hPa 0,0 l/m 0 min 2 min 57 W/m 3,2 km/h (1 Bft) 100,00 %
16.09.2019 15:28 18,3 C 16,1 C 15,6 C 88 % 1019,9 hPa 0,0 l/m 0 min 2 min 59 W/m 3,2 km/h (1 Bft) 100,00 %
16.09.2019 15:30 18,3 C 16,1 C 15,6 C 88 % 1019,9 hPa 0,0 l/m 0 min 2 min 58 W/m 0,0 km/h (0 Bft) 100,00 %
16.09.2019 15:32 18,3 C 15,6 C 15,6 C 89 % 1020,0 hPa 0,0 l/m 0 min 2 min 44 W/m 6,4 km/h (2 Bft) 97,87 %
16.09.2019 15:34 18,2 C 15,6 C 15,6 C 89 % 1020,0 hPa 0,2 l/m 0 min 2 min 46 W/m 6,4 km/h (2 Bft) 100,00 %
16.09.2019 15:36 18,1 C 15,6 C 15,6 C 89 % 1020,0 hPa 0,0 l/m 0 min 2 min 49 W/m 3,2 km/h (1 Bft) 97,83 %
16.09.2019 15:38 18,1 C 15,6 C 15,6 C 89 % 1019,9 hPa 0,0 l/m 0 min 2 min 34 W/m 0,0 km/h (0 Bft) 100,00 %
16.09.2019 15:40 18,0 C 15,6 C 15,0 C 89 % 1019,9 hPa 0,0 l/m 0 min 2 min 44 W/m 3,2 km/h (1 Bft) 97,87 %
16.09.2019 15:42 17,9 C 15,6 C 15,0 C 90 % 1019,9 hPa 0,0 l/m 0 min 0 min 61 W/m 3,2 km/h (1 Bft) 100,00 %
16.09.2019 15:44 17,9 C 15,6 C 15,6 C 90 % 1019,9 hPa 0,0 l/m 0 min 0 min 68 W/m 0,0 km/h (0 Bft) 100,00 %
16.09.2019 15:46 17,8 C 15,6 C 15,6 C 90 % 1019,9 hPa 0,2 l/m 0 min 0 min 63 W/m 3,2 km/h (1 Bft) 100,00 %
16.09.2019 15:48 17,8 C 15,6 C 15,0 C 90 % 1020,0 hPa 0,0 l/m 0 min 0 min 55 W/m 0,0 km/h (0 Bft) 100,00 %
16.09.2019 15:50 17,7 C 15,6 C 15,0 C 90 % 1020,1 hPa 0,0 l/m 0 min 0 min 42 W/m 0,0 km/h (0 Bft) 100,00 %
16.09.2019 15:52 17,7 C 15,6 C 15,6 C 90 % 1020,0 hPa 0,0 l/m 0 min 0 min 37 W/m 0,0 km/h (0 Bft) 100,00 %
16.09.2019 15:54 17,7 C 15,6 C 15,6 C 91 % 1020,0 hPa 0,0 l/m 0 min 0 min 33 W/m 3,2 km/h (1 Bft) 97,87 %
16.09.2019 15:56 17,6 C 15,0 C 15,0 C 91 % 1020,1 hPa 0,0 l/m 0 min 0 min 34 W/m 3,2 km/h (1 Bft) 97,87 %
16.09.2019 15:58 17,6 C 15,0 C 15,0 C 91 % 1020,1 hPa 0,0 l/m 0 min 0 min 33 W/m 3,2 km/h (1 Bft) 100,00 %
16.09.2019 16:00 17,6 C 15,0 C 15,0 C 91 % 1020,1 hPa 0,0 l/m 0 min 0 min 24 W/m 0,0 km/h (0 Bft) 100,00 %
16.09.2019 16:02 17,5 C 15,6 C 15,0 C 91 % 1020,1 hPa 0,0 l/m 0 min 0 min 21 W/m 3,2 km/h (1 Bft) 97,87 %
16.09.2019 16:04 17,4 C 15,6 C 15,0 C 91 % 1020,1 hPa 0,0 l/m 0 min 0 min 29 W/m 0,0 km/h (0 Bft) 100,00 %
16.09.2019 16:06 17,4 C 15,6 C 15,0 C 91 % 1020,2 hPa 0,0 l/m 0 min 0 min 41 W/m 0,0 km/h (0 Bft) 97,87 %
16.09.2019 16:08 17,4 C 15,0 C 15,0 C 92 % 1020,1 hPa 0,0 l/m 0 min 0 min 50 W/m 0,0 km/h (0 Bft) 100,00 %
16.09.2019 16:10 17,3 C 15,0 C 15,0 C 92 % 1020,1 hPa 0,0 l/m 0 min 0 min 55 W/m 3,2 km/h (1 Bft) 100,00 %
16.09.2019 16:12 17,3 C 15,6 C 15,0 C 92 % 1020,2 hPa 0,0 l/m 0 min 0 min 48 W/m 0,0 km/h (0 Bft) 97,87 %
16.09.2019 16:14 17,2 C 15,0 C 15,0 C 92 % 1020,3 hPa 0,0 l/m 0 min 0 min 28 W/m 3,2 km/h (1 Bft) 100,00 %
16.09.2019 16:16 17,2 C 15,0 C 15,0 C 92 % 1020,3 hPa 0,2 l/m 0 min 2 min 19 W/m 0,0 km/h (0 Bft) 97,87 %
16.09.2019 16:18 17,1 C 15,0 C 15,0 C 92 % 1020,3 hPa 0,0 l/m 0 min 2 min 26 W/m 3,2 km/h (1 Bft) 97,87 %
16.09.2019 16:20 17,1 C 15,0 C 15,0 C 92 % 1020,4 hPa 0,0 l/m 0 min 0 min 26 W/m 0,0 km/h (0 Bft) 97,87 %
16.09.2019 16:22 17,0 C 15,0 C 15,0 C 93 % 1020,4 hPa 0,0 l/m 0 min 0 min 38 W/m 6,4 km/h (2 Bft) 100,00 %
16.09.2019 16:24 16,9 C 15,0 C 15,0 C 93 % 1020,4 hPa 0,0 l/m 0 min 0 min 50 W/m 6,4 km/h (2 Bft) 100,00 %
16.09.2019 16:26 16,9 C 15,0 C 15,0 C 93 % 1020,4 hPa 0,0 l/m 0 min 0 min 45 W/m 3,2 km/h (1 Bft) 97,87 %
16.09.2019 16:28 16,8 C 15,0 C 15,0 C 93 % 1020,5 hPa 0,2 l/m 0 min 0 min 32 W/m 3,2 km/h (1 Bft) 100,00 %
16.09.2019 16:30 16,8 C 14,4 C 14,4 C 93 % 1020,6 hPa 0,0 l/m 0 min 0 min 40 W/m 6,4 km/h (2 Bft) 97,87 %
16.09.2019 16:32 16,7 C 14,4 C 14,4 C 93 % 1020,6 hPa 0,0 l/m 0 min 0 min 46 W/m 6,4 km/h (2 Bft) 100,00 %
16.09.2019 16:34 16,6 C 14,4 C 14,4 C 93 % 1020,6 hPa 0,0 l/m 0 min 0 min 35 W/m 3,2 km/h (1 Bft) 100,00 %
16.09.2019 16:36 16,6 C 14,4 C 14,4 C 93 % 1020,6 hPa 0,0 l/m 0 min 0 min 35 W/m 3,2 km/h (1 Bft) 97,87 %
16.09.2019 16:38 16,5 C 14,4 C 14,4 C 93 % 1020,7 hPa 0,0 l/m 0 min 0 min 35 W/m 0,0 km/h (0 Bft) 100,00 %
16.09.2019 16:40 16,4 C 14,4 C 14,4 C 93 % 1020,7 hPa 0,0 l/m 0 min 0 min 27 W/m 3,2 km/h (1 Bft) 100,00 %
16.09.2019 16:42 16,4 C 14,4 C 14,4 C 93 % 1020,8 hPa 0,0 l/m 0 min 0 min 26 W/m 9,7 km/h (2 Bft) 97,87 %
16.09.2019 16:44 16,3 C 14,4 C 14,4 C 93 % 1020,9 hPa 0,0 l/m 0 min 0 min 29 W/m 6,4 km/h (2 Bft) 97,87 %
16.09.2019 16:46 16,2 C 14,4 C 14,4 C 94 % 1020,9 hPa 0,0 l/m 0 min 0 min 28 W/m 9,7 km/h (2 Bft) 97,83 %
16.09.2019 16:48 16,2 C 13,9 C 13,9 C 93 % 1020,9 hPa 0,0 l/m 0 min 0 min 28 W/m 3,2 km/h (1 Bft) 97,87 %
16.09.2019 16:50 16,1 C 13,9 C 13,9 C 93 % 1021,0 hPa 0,0 l/m 0 min 0 min 29 W/m 6,4 km/h (2 Bft) 97,87 %
16.09.2019 16:52 16,0 C 13,9 C 13,9 C 93 % 1021,0 hPa 0,0 l/m 0 min 0 min 35 W/m 3,2 km/h (1 Bft) 95,74 %
16.09.2019 16:54 15,9 C 14,4 C 13,9 C 94 % 1021,0 hPa 0,0 l/m 0 min 0 min 45 W/m 3,2 km/h (1 Bft) 97,87 %
16.09.2019 16:56 15,9 C 13,9 C 13,9 C 94 % 1021,1 hPa 0,0 l/m 0 min 0 min 56 W/m 6,4 km/h (2 Bft) 95,65 %
16.09.2019 16:58 15,8 C 13,9 C 13,9 C 94 % 1021,1 hPa 0,0 l/m 0 min 0 min 59 W/m 3,2 km/h (1 Bft) 97,87 %
16.09.2019 17:00 15,8 C 13,9 C 13,9 C 94 % 1021,2 hPa 0,0 l/m 0 min 0 min 52 W/m 12,9 km/h (3 Bft) 97,87 %
16.09.2019 17:02 15,7 C 13,9 C 13,9 C 94 % 1021,3 hPa 0,0 l/m 0 min 0 min 46 W/m 9,7 km/h (2 Bft) 97,87 %
16.09.2019 17:04 15,7 C 13,9 C 13,9 C 94 % 1021,3 hPa 0,0 l/m 0 min 0 min 42 W/m 3,2 km/h (1 Bft) 95,74 %
16.09.2019 17:06 15,6 C 13,9 C 13,9 C 94 % 1021,3 hPa 0,0 l/m 0 min 0 min 41 W/m 3,2 km/h (1 Bft) 95,74 %
16.09.2019 17:08 15,6 C 13,9 C 13,9 C 94 % 1021,4 hPa 0,0 l/m 0 min 0 min 36 W/m 0,0 km/h (0 Bft) 95,35 %
16.09.2019 17:10 15,6 C 13,9 C 13,9 C 94 % 1021,3 hPa 0,0 l/m 0 min 0 min 37 W/m 3,2 km/h (1 Bft) 93,62 %
16.09.2019 17:12 15,6 C 13,9 C 13,9 C 94 % 1021,3 hPa 0,0 l/m 0 min 0 min 41 W/m 0,0 km/h (0 Bft) 93,48 %
16.09.2019 17:14 15,5 C 13,9 C 13,9 C 94 % 1021,3 hPa 0,0 l/m 0 min 0 min 44 W/m 3,2 km/h (1 Bft) 95,74 %
16.09.2019 17:16 15,5 C 13,9 C 13,9 C 94 % 1021,3 hPa 0,0 l/m 0 min 0 min 47 W/m 6,4 km/h (2 Bft) 95,74 %
16.09.2019 17:18 15,4 C 13,9 C 13,9 C 94 % 1021,3 hPa 0,0 l/m 0 min 0 min 56 W/m 3,2 km/h (1 Bft) 95,74 %
16.09.2019 17:20 15,4 C 13,9 C 13,9 C 95 % 1021,3 hPa 0,0 l/m 0 min 0 min 59 W/m 19,3 km/h (3 Bft) 93,62 %
16.09.2019 17:22 15,4 C 13,9 C 13,9 C 95 % 1021,3 hPa 0,0 l/m 0 min 0 min 60 W/m 3,2 km/h (1 Bft) 95,74 %
16.09.2019 17:24 15,4 C 13,9 C 13,9 C 95 % 1021,3 hPa 0,0 l/m 0 min 0 min 58 W/m 0,0 km/h (0 Bft) 93,62 %
16.09.2019 17:26 15,4 C 13,9 C 13,9 C 95 % 1021,3 hPa 0,0 l/m 0 min 0 min 55 W/m 0,0 km/h (0 Bft) 95,65 %
16.09.2019 17:28 15,4 C 13,9 C 13,9 C 95 % 1021,3 hPa 0,0 l/m 0 min 0 min 54 W/m 3,2 km/h (1 Bft) 89,36 %
16.09.2019 17:30 15,4 C 13,9 C 13,9 C 95 % 1021,3 hPa 0,0 l/m 0 min 0 min 50 W/m 3,2 km/h (1 Bft) 93,62 %
16.09.2019 17:32 15,3 C 13,9 C 13,9 C 95 % 1021,4 hPa 0,0 l/m 0 min 0 min 42 W/m 0,0 km/h (0 Bft) 95,74 %
16.09.2019 17:34 15,3 C 13,9 C 13,9 C 95 % 1021,3 hPa 0,0 l/m 0 min 0 min 45 W/m 0,0 km/h (0 Bft) 95,65 %
16.09.2019 17:36 15,3 C 13,9 C 13,9 C 95 % 1021,3 hPa 0,0 l/m 0 min 0 min 44 W/m 0,0 km/h (0 Bft) 95,74 %
16.09.2019 17:38 15,3 C 14,4 C 13,9 C 95 % 1021,3 hPa 0,0 l/m 0 min 0 min 42 W/m 0,0 km/h (0 Bft) 90,00 %
16.09.2019 17:40 15,3 C 14,4 C 13,9 C 95 % 1021,3 hPa 0,0 l/m 0 min 0 min 43 W/m 0,0 km/h (0 Bft) 95,74 %
16.09.2019 17:42 15,3 C 14,4 C 13,9 C 95 % 1021,3 hPa 0,0 l/m 0 min 0 min 46 W/m 0,0 km/h (0 Bft) 93,62 %
16.09.2019 17:44 15,3 C 14,4 C 13,9 C 95 % 1021,3 hPa 0,0 l/m 0 min 0 min 51 W/m 0,0 km/h (0 Bft) 95,74 %
16.09.2019 17:46 15,3 C 14,4 C 13,9 C 95 % 1021,2 hPa 0,0 l/m 0 min 0 min 51 W/m 0,0 km/h (0 Bft) 93,48 %
16.09.2019 17:48 15,4 C 14,4 C 13,9 C 96 % 1021,2 hPa 0,0 l/m 0 min 0 min 48 W/m 3,2 km/h (1 Bft) 95,74 %
16.09.2019 17:50 15,3 C 14,4 C 13,9 C 96 % 1021,2 hPa 0,0 l/m 0 min 0 min 43 W/m 0,0 km/h (0 Bft) 91,49 %
16.09.2019 17:52 15,3 C 13,9 C 13,9 C 96 % 1021,3 hPa 0,0 l/m 0 min 0 min 43 W/m 3,2 km/h (1 Bft) 95,74 %
16.09.2019 17:54 15,3 C 13,9 C 13,9 C 96 % 1021,3 hPa 0,0 l/m 0 min 0 min 44 W/m 0,0 km/h (0 Bft) 93,62 %
16.09.2019 17:56 15,3 C 13,9 C 13,9 C 96 % 1021,2 hPa 0,0 l/m 0 min 0 min 44 W/m 3,2 km/h (1 Bft) 95,74 %
16.09.2019 17:58 15,3 C 13,9 C 13,9 C 96 % 1021,2 hPa 0,0 l/m 0 min 0 min 45 W/m 0,0 km/h (0 Bft) 95,65 %
16.09.2019 18:00 15,3 C 14,4 C 13,9 C 96 % 1021,3 hPa 0,0 l/m 0 min 0 min 45 W/m 3,2 km/h (1 Bft) 95,74 %
16.09.2019 18:02 15,3 C 13,9 C 13,9 C 96 % 1021,3 hPa 0,0 l/m 0 min 0 min 47 W/m 3,2 km/h (1 Bft) 95,74 %
16.09.2019 18:04 15,3 C 13,9 C 13,9 C 96 % 1021,2 hPa 0,0 l/m 0 min 0 min 52 W/m 0,0 km/h (0 Bft) 95,74 %
16.09.2019 18:08 15,2 C 14,4 C 13,9 C 96 % 1021,3 hPa 0,0 l/m 0 min 0 min 51 W/m 0,0 km/h (0 Bft) 94,68 %
16.09.2019 18:10 15,3 C 14,4 C 13,9 C 96 % 1021,3 hPa 0,0 l/m 0 min 0 min 35 W/m 0,0 km/h (0 Bft) 97,83 %
16.09.2019 18:12 15,2 C 13,9 C 13,9 C 96 % 1021,3 hPa 0,0 l/m 0 min 0 min 25 W/m 0,0 km/h (0 Bft) 97,87 %
16.09.2019 18:14 15,2 C 13,9 C 13,9 C 96 % 1021,4 hPa 0,0 l/m 0 min 0 min 21 W/m 0,0 km/h (0 Bft) 97,87 %
16.09.2019 18:16 15,2 C 13,9 C 13,9 C 96 % 1021,4 hPa 0,0 l/m 0 min 0 min 20 W/m 0,0 km/h (0 Bft) 93,62 %
16.09.2019 18:18 15,2 C 13,9 C 13,9 C 96 % 1021,4 hPa 0,0 l/m 0 min 0 min 23 W/m 3,2 km/h (1 Bft) 97,87 %
16.09.2019 18:20 15,2 C 13,9 C 13,9 C 96 % 1021,4 hPa 0,0 l/m 0 min 0 min 21 W/m 3,2 km/h (1 Bft) 97,83 %
16.09.2019 18:22 15,2 C 13,9 C 13,9 C 96 % 1021,4 hPa 0,0 l/m 0 min 0 min 20 W/m 0,0 km/h (0 Bft) 100,00 %
16.09.2019 18:24 15,2 C 13,9 C 13,9 C 96 % 1021,4 hPa 0,0 l/m 0 min 0 min 17 W/m 0,0 km/h (0 Bft) 100,00 %
16.09.2019 18:26 15,1 C 13,9 C 13,9 C 96 % 1021,4 hPa 0,0 l/m 0 min 0 min 14 W/m 0,0 km/h (0 Bft) 95,74 %
16.09.2019 18:28 15,1 C 13,9 C 13,9 C 96 % 1021,4 hPa 0,0 l/m 0 min 0 min 14 W/m 3,2 km/h (1 Bft) 100,00 %
16.09.2019 18:30 15,1 C 13,9 C 13,9 C 96 % 1021,4 hPa 0,0 l/m 0 min 0 min 18 W/m 0,0 km/h (0 Bft) 100,00 %
16.09.2019 18:32 15,1 C 13,9 C 13,9 C 96 % 1021,5 hPa 0,0 l/m 0 min 0 min 21 W/m 3,2 km/h (1 Bft) 95,65 %
16.09.2019 18:34 15,1 C 13,9 C 13,9 C 96 % 1021,5 hPa 0,0 l/m 0 min 0 min 18 W/m 3,2 km/h (1 Bft) 95,74 %
16.09.2019 18:36 15,0 C 13,9 C 13,9 C 96 % 1021,5 hPa 0,0 l/m 0 min 0 min 17 W/m 3,2 km/h (1 Bft) 100,00 %
16.09.2019 18:38 15,0 C 13,9 C 13,9 C 96 % 1021,6 hPa 0,0 l/m 0 min 0 min 12 W/m 0,0 km/h (0 Bft) 100,00 %
16.09.2019 18:40 15,0 C 13,9 C 13,3 C 96 % 1021,5 hPa 0,0 l/m 0 min 0 min 9 W/m 3,2 km/h (1 Bft) 100,00 %
16.09.2019 18:42 15,0 C 13,9 C 13,3 C 96 % 1021,6 hPa 0,0 l/m 0 min 0 min 9 W/m 9,7 km/h (2 Bft) 97,87 %
16.09.2019 18:44 14,9 C 13,3 C 13,3 C 96 % 1021,6 hPa 0,0 l/m 0 min 0 min 11 W/m 0,0 km/h (0 Bft) 100,00 %
16.09.2019 18:46 14,9 C 13,3 C 13,3 C 96 % 1021,6 hPa 0,0 l/m 0 min 0 min 14 W/m 3,2 km/h (1 Bft) 100,00 %
16.09.2019 18:48 14,9 C 13,3 C 13,3 C 96 % 1021,5 hPa 0,0 l/m 0 min 0 min 21 W/m 3,2 km/h (1 Bft) 100,00 %
16.09.2019 18:50 14,9 C 13,3 C 13,3 C 96 % 1021,5 hPa 0,0 l/m 0 min 0 min 26 W/m 3,2 km/h (1 Bft) 100,00 %
16.09.2019 18:52 14,8 C 13,3 C 13,3 C 96 % 1021,5 hPa 0,0 l/m 0 min 0 min 26 W/m 0,0 km/h (0 Bft) 100,00 %
16.09.2019 18:54 14,8 C 13,3 C 13,3 C 96 % 1021,4 hPa 0,0 l/m 0 min 0 min 22 W/m 3,2 km/h (1 Bft) 100,00 %
16.09.2019 18:56 14,8 C 13,3 C 13,3 C 96 % 1021,5 hPa 0,0 l/m 0 min 0 min 18 W/m 6,4 km/h (2 Bft) 100,00 %
16.09.2019 18:58 14,7 C 13,3 C 13,3 C 96 % 1021,5 hPa 0,0 l/m 0 min 0 min 15 W/m 3,2 km/h (1 Bft) 100,00 %
16.09.2019 19:00 14,7 C 13,3 C 13,3 C 96 % 1021,5 hPa 0,0 l/m 0 min 0 min 12 W/m 0,0 km/h (0 Bft) 100,00 %
16.09.2019 19:02 14,7 C 13,3 C 13,3 C 96 % 1021,5 hPa 0,0 l/m 0 min 0 min 11 W/m 3,2 km/h (1 Bft) 100,00 %
16.09.2019 19:04 14,7 C 13,3 C 13,3 C 96 % 1021,5 hPa 0,0 l/m 0 min 0 min 9 W/m 3,2 km/h (1 Bft) 100,00 %
16.09.2019 19:06 14,7 C 13,3 C 13,3 C 96 % 1021,5 hPa 0,0 l/m 0 min 0 min 9 W/m 0,0 km/h (0 Bft) 97,87 %
16.09.2019 19:08 14,6 C 13,3 C 13,3 C 96 % 1021,4 hPa 0,0 l/m 0 min 0 min 11 W/m 0,0 km/h (0 Bft) 97,87 %
16.09.2019 19:10 14,6 C 13,3 C 13,3 C 96 % 1021,5 hPa 0,0 l/m 0 min 0 min 14 W/m 12,9 km/h (3 Bft) 100,00 %
16.09.2019 19:12 14,6 C 13,3 C 13,3 C 96 % 1021,5 hPa 0,0 l/m 0 min 0 min 14 W/m 3,2 km/h (1 Bft) 100,00 %
16.09.2019 19:14 14,6 C 13,3 C 13,3 C 96 % 1021,6 hPa 0,0 l/m 0 min 0 min 14 W/m 0,0 km/h (0 Bft) 97,87 %
16.09.2019 19:16 14,5 C 13,3 C 13,3 C 96 % 1021,6 hPa 0,0 l/m 0 min 0 min 11 W/m 3,2 km/h (1 Bft) 100,00 %
16.09.2019 19:18 14,5 C 13,3 C 13,3 C 96 % 1021,6 hPa 0,0 l/m 0 min 0 min 7 W/m 0,0 km/h (0 Bft) 100,00 %
16.09.2019 19:20 14,5 C 13,3 C 13,3 C 96 % 1021,6 hPa 0,0 l/m 0 min 0 min 5 W/m 6,4 km/h (2 Bft) 100,00 %
16.09.2019 19:22 14,5 C 13,3 C 13,3 C 96 % 1021,6 hPa 0,0 l/m 0 min 0 min 5 W/m 0,0 km/h (0 Bft) 100,00 %
16.09.2019 19:24 14,5 C 13,3 C 13,3 C 96 % 1021,6 hPa 0,0 l/m 0 min 0 min 5 W/m 3,2 km/h (1 Bft) 100,00 %
16.09.2019 19:26 14,4 C 13,3 C 12,8 C 96 % 1021,6 hPa 0,0 l/m 0 min 0 min 3 W/m 3,2 km/h (1 Bft) 97,87 %
16.09.2019 19:28 14,4 C 13,3 C 13,3 C 96 % 1021,6 hPa 0,0 l/m 0 min 0 min 0 W/m 3,2 km/h (1 Bft) 97,83 %
16.09.2019 19:30 14,4 C 13,3 C 12,8 C 96 % 1021,7 hPa 0,0 l/m 0 min 0 min 0 W/m 3,2 km/h (1 Bft) 97,87 %
16.09.2019 19:32 14,4 C 13,3 C 12,8 C 96 % 1021,7 hPa 0,0 l/m 0 min 0 min 0 W/m 0,0 km/h (0 Bft) 100,00 %
16.09.2019 19:34 14,4 C 13,3 C 12,8 C 96 % 1021,7 hPa 0,0 l/m 0 min 0 min 0 W/m 3,2 km/h (1 Bft) 97,87 %
16.09.2019 19:36 14,4 C 13,3 C 12,8 C 96 % 1021,8 hPa 0,0 l/m 0 min 0 min 3 W/m 0,0 km/h (0 Bft) 100,00 %
16.09.2019 19:38 14,3 C 12,8 C 12,8 C 96 % 1021,7 hPa 0,0 l/m 0 min 0 min 7 W/m 0,0 km/h (0 Bft) 100,00 %
16.09.2019 19:40 14,3 C 12,8 C 12,8 C 96 % 1021,7 hPa 0,0 l/m 0 min 0 min 5 W/m 0,0 km/h (0 Bft) 97,83 %
16.09.2019 19:42 14,3 C 12,8 C 12,8 C 96 % 1021,7 hPa 0,0 l/m 0 min 0 min 5 W/m 0,0 km/h (0 Bft) 89,36 %
16.09.2019 19:44 14,3 C 12,8 C 12,2 C 96 % 1021,7 hPa 0,0 l/m 0 min 0 min 1 W/m 0,0 km/h (0 Bft) 97,87 %
16.09.2019 19:46 14,2 C 12,8 C 12,2 C 96 % 1021,7 hPa 0,0 l/m 0 min 0 min 0 W/m 0,0 km/h (0 Bft) 95,74 %
16.09.2019 19:48 14,2 C 12,2 C 12,2 C 96 % 1021,8 hPa 0,0 l/m 0 min 0 min 0 W/m 0,0 km/h (0 Bft) 95,74 %
16.09.2019 19:50 14,2 C 12,2 C 12,2 C 96 % 1021,7 hPa 0,0 l/m 0 min 0 min 0 W/m 0,0 km/h (0 Bft) 97,83 %
16.09.2019 19:52 14,2 C 12,2 C 12,2 C 96 % 1021,7 hPa 0,0 l/m 0 min 0 min 0 W/m 0,0 km/h (0 Bft) 97,87 %
16.09.2019 19:54 14,2 C 12,2 C 12,2 C 96 % 1021,7 hPa 0,0 l/m 0 min 0 min 0 W/m 0,0 km/h (0 Bft) 97,87 %
16.09.2019 19:56 14,2 C 12,2 C 12,2 C 96 % 1021,6 hPa 0,0 l/m 0 min 0 min 0 W/m 0,0 km/h (0 Bft) 95,74 %
16.09.2019 19:58 14,2 C 12,2 C 12,2 C 96 % 1021,7 hPa 0,0 l/m 0 min 0 min 0 W/m 0,0 km/h (0 Bft) 97,87 %
16.09.2019 20:00 14,2 C 12,2 C 12,2 C 96 % 1021,7 hPa 0,0 l/m 0 min 0 min 0 W/m 0,0 km/h (0 Bft) 97,87 %
16.09.2019 20:02 14,2 C 12,2 C 12,2 C 96 % 1021,8 hPa 0,0 l/m 0 min 0 min 0 W/m 0,0 km/h (0 Bft) 97,83 %
16.09.2019 20:04 14,2 C 12,2 C 12,2 C 96 % 1021,8 hPa 0,0 l/m 0 min 0 min 0 W/m 0,0 km/h (0 Bft) 93,62 %
16.09.2019 20:06 14,2 C 12,2 C 12,2 C 96 % 1021,7 hPa 0,0 l/m 0 min 0 min 0 W/m 0,0 km/h (0 Bft) 95,74 %
16.09.2019 20:08 14,2 C 12,2 C 12,2 C 96 % 1021,7 hPa 0,0 l/m 0 min 0 min 0 W/m 0,0 km/h (0 Bft) 97,87 %
16.09.2019 20:10 14,1 C 12,2 C 11,7 C 96 % 1021,7 hPa 0,0 l/m 0 min 0 min 0 W/m 0,0 km/h (0 Bft) 97,87 %
16.09.2019 20:12 14,1 C 12,2 C 11,7 C 96 % 1021,7 hPa 0,0 l/m 0 min 0 min 0 W/m 0,0 km/h (0 Bft) 93,62 %
16.09.2019 20:14 14,1 C 12,2 C 11,7 C 96 % 1021,7 hPa 0,0 l/m 0 min 0 min 0 W/m 0,0 km/h (0 Bft) 95,65 %
16.09.2019 20:16 14,0 C 12,2 C 11,7 C 96 % 1021,7 hPa 0,0 l/m 0 min 0 min 0 W/m 0,0 km/h (0 Bft) 95,74 %
16.09.2019 20:18 14,0 C 12,2 C 11,7 C 96 % 1021,7 hPa 0,0 l/m 0 min 0 min 0 W/m 0,0 km/h (0 Bft) 97,87 %
16.09.2019 20:20 13,9 C 12,2 C 11,7 C 96 % 1021,7 hPa 0,0 l/m 0 min 0 min 0 W/m 0,0 km/h (0 Bft) 93,62 %
16.09.2019 20:22 13,9 C 12,2 C 11,7 C 96 % 1021,8 hPa 0,0 l/m 0 min 0 min 0 W/m 0,0 km/h (0 Bft) 93,88 %
16.09.2019 20:24 13,9 C 12,2 C 11,7 C 96 % 1021,8 hPa 0,0 l/m 0 min 0 min 0 W/m 0,0 km/h (0 Bft) 95,74 %
16.09.2019 20:26 13,8 C 12,2 C 11,7 C 96 % 1021,8 hPa 0,0 l/m 0 min 0 min 0 W/m 0,0 km/h (0 Bft) 97,87 %
16.09.2019 20:28 13,8 C 12,2 C 11,7 C 96 % 1021,9 hPa 0,0 l/m 0 min 0 min 0 W/m 0,0 km/h (0 Bft) 95,65 %
16.09.2019 20:30 13,8 C 12,2 C 11,7 C 96 % 1021,9 hPa 0,0 l/m 0 min 0 min 0 W/m 0,0 km/h (0 Bft) 97,87 %
16.09.2019 20:32 13,8 C 12,2 C 11,7 C 96 % 1021,9 hPa 0,0 l/m 0 min 0 min 0 W/m 0,0 km/h (0 Bft) 93,62 %
16.09.2019 20:34 13,8 C 12,2 C 12,2 C 95 % 1021,9 hPa 0,0 l/m 0 min 0 min 0 W/m 0,0 km/h (0 Bft) 97,87 %
16.09.2019 20:36 13,7 C 12,2 C 12,2 C 95 % 1021,9 hPa 0,0 l/m 0 min 0 min 0 W/m 0,0 km/h (0 Bft) 97,87 %
16.09.2019 20:38 13,7 C 12,2 C 12,2 C 95 % 1022,0 hPa 0,0 l/m 0 min 0 min 0 W/m 0,0 km/h (0 Bft) 95,74 %
16.09.2019 20:40 13,7 C 12,2 C 12,2 C 95 % 1022,0 hPa 0,0 l/m 0 min 0 min 0 W/m 0,0 km/h (0 Bft) 97,83 %
16.09.2019 20:42 13,7 C 12,2 C 12,2 C 95 % 1022,0 hPa 0,0 l/m 0 min 0 min 0 W/m 0,0 km/h (0 Bft) 97,87 %
16.09.2019 20:44 13,7 C 12,2 C 12,2 C 95 % 1022,0 hPa 0,0 l/m 0 min 0 min 0 W/m 0,0 km/h (0 Bft) 97,87 %
16.09.2019 20:46 13,7 C 12,2 C 12,2 C 95 % 1022,0 hPa 0,0 l/m 0 min 0 min 0 W/m 0,0 km/h (0 Bft) 91,49 %
16.09.2019 20:48 13,6 C 12,2 C 12,2 C 95 % 1022,1 hPa 0,0 l/m 0 min 0 min 0 W/m 0,0 km/h (0 Bft) 95,74 %
16.09.2019 20:50 13,6 C 12,2 C 12,2 C 95 % 1022,0 hPa 0,0 l/m 0 min 0 min 0 W/m 3,2 km/h (1 Bft) 95,65 %
16.09.2019 20:52 13,6 C 12,2 C 12,2 C 95 % 1022,1 hPa 0,0 l/m 0 min 0 min 0 W/m 0,0 km/h (0 Bft) 95,74 %
16.09.2019 20:54 13,6 C 12,2 C 12,2 C 95 % 1022,0 hPa 0,0 l/m 0 min 0 min 0 W/m 0,0 km/h (0 Bft) 97,87 %
16.09.2019 20:56 13,6 C 12,2 C 12,2 C 95 % 1022,0 hPa 0,0 l/m 0 min 0 min 0 W/m 0,0 km/h (0 Bft) 95,74 %
16.09.2019 20:58 13,6 C 12,2 C 11,7 C 95 % 1022,0 hPa 0,0 l/m 0 min 0 min 0 W/m 0,0 km/h (0 Bft) 95,74 %
16.09.2019 21:00 13,6 C 12,2 C 11,7 C 95 % 1022,0 hPa 0,0 l/m 0 min 0 min 0 W/m 0,0 km/h (0 Bft) 95,74 %
16.09.2019 21:02 13,5 C 12,2 C 11,7 C 95 % 1022,0 hPa 0,0 l/m 0 min 0 min 0 W/m 0,0 km/h (0 Bft) 93,48 %
16.09.2019 21:04 13,5 C 11,7 C 11,7 C 95 % 1022,0 hPa 0,0 l/m 0 min 0 min 0 W/m 0,0 km/h (0 Bft) 93,62 %
16.09.2019 21:06 13,5 C 11,7 C 11,7 C 95 % 1022,0 hPa 0,0 l/m 0 min 0 min 0 W/m 0,0 km/h (0 Bft) 97,87 %
16.09.2019 21:08 13,4 C 11,7 C 11,7 C 95 % 1022,0 hPa 0,0 l/m 0 min 0 min 0 W/m 0,0 km/h (0 Bft) 95,74 %
16.09.2019 21:10 13,4 C 11,7 C 11,7 C 95 % 1022,0 hPa 0,0 l/m 0 min 0 min 0 W/m 0,0 km/h (0 Bft) 97,87 %
16.09.2019 21:12 13,4 C 11,7 C 11,7 C 95 % 1022,0 hPa 0,0 l/m 0 min 0 min 0 W/m 0,0 km/h (0 Bft) 97,87 %
16.09.2019 21:14 13,4 C 11,7 C 11,7 C 95 % 1022,0 hPa 0,0 l/m 0 min 0 min 0 W/m 0,0 km/h (0 Bft) 97,87 %
16.09.2019 21:16 13,4 C 11,7 C 11,7 C 95 % 1021,9 hPa 0,0 l/m 0 min 0 min 0 W/m 0,0 km/h (0 Bft) 95,65 %
16.09.2019 21:18 13,4 C 11,7 C 11,7 C 95 % 1021,9 hPa 0,0 l/m 0 min 0 min 0 W/m 0,0 km/h (0 Bft) 95,74 %
16.09.2019 21:20 13,3 C 11,7 C 11,7 C 95 % 1022,0 hPa 0,0 l/m 0 min 0 min 0 W/m 0,0 km/h (0 Bft) 97,87 %
16.09.2019 21:22 13,3 C 12,2 C 11,7 C 95 % 1022,0 hPa 0,0 l/m 0 min 0 min 0 W/m 0,0 km/h (0 Bft) 97,87 %
16.09.2019 21:24 13,3 C 12,2 C 11,7 C 95 % 1022,0 hPa 0,0 l/m 0 min 0 min 0 W/m 0,0 km/h (0 Bft) 97,87 %
16.09.2019 21:26 13,3 C 12,2 C 11,7 C 95 % 1022,0 hPa 0,0 l/m 0 min 0 min 0 W/m 0,0 km/h (0 Bft) 97,83 %
16.09.2019 21:28 13,3 C 12,2 C 11,7 C 95 % 1022,0 hPa 0,0 l/m 0 min 0 min 0 W/m 0,0 km/h (0 Bft) 97,87 %
16.09.2019 21:30 13,3 C 12,2 C 11,7 C 95 % 1022,0 hPa 0,0 l/m 0 min 0 min 0 W/m 0,0 km/h (0 Bft) 95,74 %
16.09.2019 21:32 13,2 C 12,2 C 11,7 C 95 % 1021,9 hPa 0,0 l/m 0 min 0 min 0 W/m 0,0 km/h (0 Bft) 97,87 %
16.09.2019 21:34 13,2 C 12,2 C 12,2 C 95 % 1021,9 hPa 0,0 l/m 0 min 0 min 0 W/m 0,0 km/h (0 Bft) 97,87 %
16.09.2019 21:36 13,2 C 12,2 C 11,7 C 95 % 1021,9 hPa 0,0 l/m 0 min 0 min 0 W/m 0,0 km/h (0 Bft) 97,87 %
16.09.2019 21:38 13,2 C 12,2 C 12,2 C 95 % 1021,9 hPa 0,0 l/m 0 min 0 min 0 W/m 0,0 km/h (0 Bft) 97,83 %
16.09.2019 21:40 13,2 C 12,2 C 12,2 C 95 % 1021,9 hPa 0,0 l/m 0 min 0 min 0 W/m 0,0 km/h (0 Bft) 95,74 %
16.09.2019 21:42 13,3 C 12,2 C 12,2 C 95 % 1021,9 hPa 0,0 l/m 0 min 0 min 0 W/m 0,0 km/h (0 Bft) 97,87 %
16.09.2019 21:44 13,3 C 12,2 C 12,2 C 95 % 1021,9 hPa 0,0 l/m 0 min 0 min 0 W/m 0,0 km/h (0 Bft) 95,74 %
16.09.2019 21:46 13,3 C 12,2 C 12,2 C 96 % 1022,0 hPa 0,0 l/m 0 min 0 min 0 W/m 0,0 km/h (0 Bft) 97,87 %
16.09.2019 21:48 13,3 C 12,2 C 12,2 C 96 % 1022,0 hPa 0,0 l/m 0 min 0 min 0 W/m 0,0 km/h (0 Bft) 97,87 %
16.09.2019 21:50 13,3 C 12,2 C 12,2 C 96 % 1021,9 hPa 0,0 l/m 0 min 0 min 0 W/m 0,0 km/h (0 Bft) 97,83 %
16.09.2019 21:52 13,3 C 12,2 C 12,2 C 96 % 1021,9 hPa 0,0 l/m 0 min 0 min 0 W/m 0,0 km/h (0 Bft) 95,74 %
16.09.2019 21:54 13,3 C 12,2 C 12,2 C 96 % 1021,9 hPa 0,0 l/m 0 min 0 min 0 W/m 0,0 km/h (0 Bft) 97,87 %
16.09.2019 21:56 13,3 C 12,2 C 12,2 C 96 % 1021,9 hPa 0,0 l/m 0 min 0 min 0 W/m 0,0 km/h (0 Bft) 95,74 %
16.09.2019 21:58 13,3 C 12,2 C 12,2 C 96 % 1021,9 hPa 0,0 l/m 0 min 0 min 0 W/m 0,0 km/h (0 Bft) 97,87 %
16.09.2019 22:00 13,3 C 12,2 C 12,2 C 96 % 1021,8 hPa 0,0 l/m 0 min 0 min 0 W/m 0,0 km/h (0 Bft) 100,00 %
16.09.2019 22:02 13,3 C 12,2 C 12,2 C 96 % 1021,9 hPa 0,0 l/m 0 min 0 min 0 W/m 0,0 km/h (0 Bft) 97,83 %
16.09.2019 22:04 13,3 C 12,2 C 12,2 C 96 % 1021,9 hPa 0,0 l/m 0 min 0 min 0 W/m 0,0 km/h (0 Bft) 100,00 %
16.09.2019 22:06 13,3 C 12,2 C 12,2 C 96 % 1022,0 hPa 0,0 l/m 0 min 0 min 0 W/m 0,0 km/h (0 Bft) 100,00 %
16.09.2019 22:08 13,3 C 12,2 C 12,2 C 96 % 1021,9 hPa 0,0 l/m 0 min 0 min 0 W/m 0,0 km/h (0 Bft) 97,87 %
16.09.2019 22:10 13,3 C 12,2 C 12,2 C 96 % 1021,9 hPa 0,0 l/m 0 min 0 min 0 W/m 0,0 km/h (0 Bft) 100,00 %
16.09.2019 22:12 13,3 C 12,2 C 12,2 C 96 % 1021,9 hPa 0,0 l/m 0 min 0 min 0 W/m 0,0 km/h (0 Bft) 100,00 %
16.09.2019 22:14 13,3 C 12,2 C 12,2 C 96 % 1021,9 hPa 0,0 l/m 0 min 0 min 0 W/m 0,0 km/h (0 Bft) 100,00 %
16.09.2019 22:16 13,3 C 12,2 C 12,2 C 96 % 1021,9 hPa 0,0 l/m 0 min 0 min 0 W/m 0,0 km/h (0 Bft) 100,00 %
16.09.2019 22:18 13,3 C 12,2 C 12,2 C 96 % 1021,8 hPa 0,0 l/m 0 min 0 min 0 W/m 0,0 km/h (0 Bft) 97,87 %
16.09.2019 22:20 13,3 C 12,2 C 12,2 C 96 % 1021,9 hPa 0,0 l/m 0 min 0 min 0 W/m 0,0 km/h (0 Bft) 100,00 %
16.09.2019 22:22 13,3 C 12,2 C 12,2 C 96 % 1021,9 hPa 0,0 l/m 0 min 0 min 0 W/m 0,0 km/h (0 Bft) 100,00 %
16.09.2019 22:24 13,3 C 12,2 C 12,2 C 96 % 1021,9 hPa 0,0 l/m 0 min 0 min 0 W/m 3,2 km/h (1 Bft) 100,00 %
16.09.2019 22:26 13,3 C 12,2 C 12,2 C 96 % 1021,8 hPa 0,0 l/m 0 min 0 min 0 W/m 0,0 km/h (0 Bft) 100,00 %
16.09.2019 22:28 13,3 C 12,2 C 12,2 C 96 % 1021,9 hPa 0,0 l/m 0 min 0 min 0 W/m 0,0 km/h (0 Bft) 100,00 %
16.09.2019 22:30 13,4 C 12,2 C 12,2 C 96 % 1021,8 hPa 0,0 l/m 0 min 0 min 0 W/m 0,0 km/h (0 Bft) 97,87 %
16.09.2019 22:32 13,4 C 12,2 C 12,2 C 96 % 1021,9 hPa 0,0 l/m 0 min 0 min 0 W/m 0,0 km/h (0 Bft) 97,87 %
16.09.2019 22:34 13,4 C 12,2 C 12,2 C 96 % 1021,8 hPa 0,0 l/m 0 min 0 min 0 W/m 0,0 km/h (0 Bft) 95,74 %
16.09.2019 22:36 13,4 C 12,2 C 12,2 C 96 % 1021,9 hPa 0,0 l/m 0 min 0 min 0 W/m 0,0 km/h (0 Bft) 95,65 %
16.09.2019 22:38 13,4 C 12,2 C 12,2 C 96 % 1021,9 hPa 0,0 l/m 0 min 0 min 0 W/m 0,0 km/h (0 Bft) 95,74 %
16.09.2019 22:40 13,4 C 12,2 C 12,2 C 96 % 1021,9 hPa 0,0 l/m 0 min 0 min 0 W/m 0,0 km/h (0 Bft) 97,87 %
16.09.2019 22:42 13,4 C 12,2 C 12,2 C 96 % 1021,9 hPa 0,0 l/m 0 min 0 min 0 W/m 0,0 km/h (0 Bft) 95,74 %
16.09.2019 22:44 13,4 C 12,8 C 12,2 C 96 % 1021,9 hPa 0,0 l/m 0 min 0 min 0 W/m 0,0 km/h (0 Bft) 97,87 %
16.09.2019 22:46 13,4 C 12,8 C 12,2 C 96 % 1021,9 hPa 0,0 l/m 0 min 0 min 0 W/m 0,0 km/h (0 Bft) 97,87 %
16.09.2019 22:48 13,4 C 12,2 C 12,2 C 96 % 1021,9 hPa 0,0 l/m 0 min 0 min 0 W/m 0,0 km/h (0 Bft) 95,65 %
16.09.2019 22:50 13,4 C 12,2 C 12,2 C 96 % 1021,9 hPa 0,0 l/m 0 min 0 min 0 W/m 0,0 km/h (0 Bft) 95,74 %
16.09.2019 22:52 13,4 C 12,2 C 12,2 C 96 % 1021,8 hPa 0,0 l/m 0 min 0 min 0 W/m 0,0 km/h (0 Bft) 95,74 %
16.09.2019 22:54 13,4 C 12,8 C 12,2 C 96 % 1021,8 hPa 0,0 l/m 0 min 0 min 0 W/m 0,0 km/h (0 Bft) 97,87 %
16.09.2019 22:56 13,4 C 12,2 C 12,2 C 96 % 1021,9 hPa 0,0 l/m 0 min 0 min 0 W/m 0,0 km/h (0 Bft) 93,62 %
16.09.2019 22:58 13,4 C 12,2 C 12,2 C 96 % 1021,9 hPa 0,0 l/m 0 min 0 min 0 W/m 0,0 km/h (0 Bft) 97,87 %
16.09.2019 23:00 13,4 C 12,2 C 12,2 C 96 % 1021,8 hPa 0,0 l/m 0 min 0 min 0 W/m 0,0 km/h (0 Bft) 95,65 %
16.09.2019 23:02 13,4 C 12,2 C 12,2 C 96 % 1021,8 hPa 0,0 l/m 0 min 0 min 0 W/m 0,0 km/h (0 Bft) 95,74 %
16.09.2019 23:04 13,4 C 12,2 C 12,2 C 96 % 1021,8 hPa 0,0 l/m 0 min 0 min 0 W/m 0,0 km/h (0 Bft) 95,74 %
16.09.2019 23:06 13,4 C 12,2 C 12,2 C 96 % 1021,8 hPa 0,0 l/m 0 min 0 min 0 W/m 0,0 km/h (0 Bft) 93,62 %
16.09.2019 23:08 13,4 C 12,2 C 12,2 C 96 % 1021,8 hPa 0,0 l/m 0 min 0 min 0 W/m 0,0 km/h (0 Bft) 95,74 %
16.09.2019 23:10 13,4 C 12,2 C 12,2 C 96 % 1021,8 hPa 0,0 l/m 0 min 0 min 0 W/m 0,0 km/h (0 Bft) 95,74 %
16.09.2019 23:12 13,4 C 12,2 C 12,2 C 96 % 1021,8 hPa 0,0 l/m 0 min 0 min 0 W/m 0,0 km/h (0 Bft) 95,65 %
16.09.2019 23:14 13,4 C 12,2 C 12,2 C 96 % 1021,8 hPa 0,0 l/m 0 min 0 min 0 W/m 0,0 km/h (0 Bft) 95,74 %
16.09.2019 23:16 13,4 C 12,2 C 12,2 C 96 % 1021,8 hPa 0,0 l/m 0 min 0 min 0 W/m 0,0 km/h (0 Bft) 95,74 %
16.09.2019 23:18 13,4 C 12,2 C 12,2 C 96 % 1021,8 hPa 0,0 l/m 0 min 0 min 0 W/m 0,0 km/h (0 Bft) 95,74 %
16.09.2019 23:20 13,4 C 12,2 C 12,2 C 96 % 1021,8 hPa 0,0 l/m 0 min 0 min 0 W/m 0,0 km/h (0 Bft) 97,87 %
16.09.2019 23:22 13,4 C 12,2 C 12,2 C 96 % 1021,7 hPa 0,0 l/m 0 min 0 min 0 W/m 0,0 km/h (0 Bft) 97,87 %
16.09.2019 23:24 13,4 C 12,2 C 12,2 C 96 % 1021,7 hPa 0,0 l/m 0 min 0 min 0 W/m 0,0 km/h (0 Bft) 97,83 %
16.09.2019 23:26 13,4 C 12,2 C 12,2 C 96 % 1021,7 hPa 0,0 l/m 0 min 0 min 0 W/m 0,0 km/h (0 Bft) 97,87 %
16.09.2019 23:28 13,4 C 12,2 C 12,2 C 96 % 1021,6 hPa 0,0 l/m 0 min 0 min 0 W/m 0,0 km/h (0 Bft) 95,74 %
16.09.2019 23:30 13,4 C 12,2 C 12,2 C 96 % 1021,6 hPa 0,0 l/m 0 min 0 min 0 W/m 0,0 km/h (0 Bft) 97,87 %
16.09.2019 23:32 13,4 C 12,2 C 12,2 C 96 % 1021,6 hPa 0,0 l/m 0 min 0 min 0 W/m 0,0 km/h (0 Bft) 97,87 %
16.09.2019 23:34 13,4 C 12,2 C 12,2 C 96 % 1021,5 hPa 0,0 l/m 0 min 0 min 0 W/m 0,0 km/h (0 Bft) 97,83 %
16.09.2019 23:36 13,4 C 12,2 C 12,2 C 96 % 1021,6 hPa 0,0 l/m 0 min 0 min 0 W/m 0,0 km/h (0 Bft) 93,62 %
16.09.2019 23:38 13,4 C 12,2 C 12,2 C 96 % 1021,5 hPa 0,0 l/m 0 min 0 min 0 W/m 0,0 km/h (0 Bft) 97,87 %
16.09.2019 23:40 13,4 C 12,2 C 12,2 C 97 % 1021,6 hPa 0,0 l/m 0 min 0 min 0 W/m 0,0 km/h (0 Bft) 97,87 %
16.09.2019 23:42 13,4 C 12,2 C 12,2 C 97 % 1021,6 hPa 0,0 l/m 0 min 0 min 0 W/m 0,0 km/h (0 Bft) 95,74 %
16.09.2019 23:44 13,4 C 12,2 C 12,2 C 97 % 1021,6 hPa 0,0 l/m 0 min 0 min 0 W/m 0,0 km/h (0 Bft) 97,87 %
16.09.2019 23:46 13,4 C 12,2 C 12,2 C 97 % 1021,5 hPa 0,0 l/m 0 min 0 min 0 W/m 0,0 km/h (0 Bft) 97,83 %
16.09.2019 23:48 13,4 C 12,2 C 12,2 C 97 % 1021,5 hPa 0,0 l/m 0 min 0 min 0 W/m 0,0 km/h (0 Bft) 97,87 %
16.09.2019 23:50 13,4 C 12,2 C 12,2 C 97 % 1021,5 hPa 0,0 l/m 0 min 0 min 0 W/m 0,0 km/h (0 Bft) 100,00 %
16.09.2019 23:52 13,4 C 12,2 C 12,2 C 97 % 1021,5 hPa 0,0 l/m 0 min 0 min 0 W/m 0,0 km/h (0 Bft) 100,00 %
16.09.2019 23:54 13,4 C 12,2 C 12,2 C 97 % 1021,6 hPa 0,0 l/m 0 min 0 min 0 W/m 0,0 km/h (0 Bft) 100,00 %
16.09.2019 23:56 13,4 C 12,2 C 12,2 C 97 % 1021,5 hPa 0,0 l/m 0 min 0 min 0 W/m 0,0 km/h (0 Bft) 100,00 %
16.09.2019 23:58 13,4 C 12,2 C 12,2 C 97 % 1021,5 hPa 0,0 l/m 0 min 0 min 0 W/m 0,0 km/h (0 Bft) 100,00 %
_ Min-Zeit 21:32 21:04 20:10 12:52 14:18 - - - - 00:00 03:40
Minimum _ 13,2 C 11,7 C 11,7 C 82 % 1019,4 hPa - - - - 0,0 km/h (0 Bft) 89,36 %
_ Max-Zeit 13:38 13:08 13:10 23:40 20:48 15:34 00:00 09:58 13:02 17:20 01:20
Maximum _ 18,8 C 20,0 C 18,9 C 97 % 1022,1 hPa 0,2 l/m 0 min 2 min 231 W/m 19,3 km/h
O (3 Bft)
100,00 %
Durchschnitt _ 15,4 C 14,5 C 14,1 C 91 % 1020,8 hPa #0,8 l/m #0 min. #38 min. 79 W/m 1,2 km/h (1 Bft) 97,36 %
© 2019 W. Hausmann